Time,TemperatureF,DewpointF,PressureIn,WindDirection,WindDirectionDegrees,WindSpeedMPH,WindSpeedGustMPH,Humidity,HourlyPrecipIn,Conditions,Clouds,dailyrainin,SoftwareType,DateUTC
2013-01-29 00:03:00,36.3,35.0,29.95,WNW,288,6.0,9.0,95,0.00,,,0.11,VWS V14.01,2013-01-29 05:03:00,
2013-01-29 00:04:00,36.3,35.0,29.95,WSW,257,6.0,8.0,95,0.00,,,0.00,VWS V14.01,2013-01-29 05:04:00,
2013-01-29 00:05:00,36.3,35.0,29.95,WSW,257,6.0,8.0,95,0.00,,,0.00,VWS V14.01,2013-01-29 05:05:00,
2013-01-29 00:09:00,36.3,35.0,29.95,West,260,3.0,9.0,95,0.00,,,0.00,VWS V14.01,2013-01-29 05:09:00,
2013-01-29 00:11:00,36.3,35.0,29.95,West,265,7.0,9.0,95,0.00,,,0.00,VWS V14.01,2013-01-29 05:11:00,
2013-01-29 00:14:00,36.3,35.0,29.95,WSW,246,3.0,9.0,95,0.00,,,0.00,VWS V14.01,2013-01-29 05:14:00,
2013-01-29 00:17:00,36.2,34.9,29.95,WNW,282,4.0,9.0,95,0.00,,,0.00,VWS V14.01,2013-01-29 05:17:00,
2013-01-29 00:18:00,36.2,34.9,29.95,West,269,0.0,9.0,95,0.00,,,0.00,VWS V14.01,2013-01-29 05:18:00,
2013-01-29 00:19:00,36.2,34.9,29.95,West,268,0.0,9.0,95,0.00,,,0.00,VWS V14.01,2013-01-29 05:19:00,
2013-01-29 00:22:00,36.2,34.9,29.95,West,265,2.0,9.0,95,0.00,,,0.00,VWS V14.01,2013-01-29 05:22:00,
2013-01-29 00:23:00,36.2,34.9,29.95,WSW,255,11.0,11.0,95,0.00,,,0.00,VWS V14.01,2013-01-29 05:23:00,
2013-01-29 00:26:00,36.2,34.9,29.95,WSW,254,1.0,11.0,95,0.00,,,0.00,VWS V14.01,2013-01-29 05:26:00,
2013-01-29 00:27:00,36.2,34.9,29.95,WSW,254,5.0,11.0,95,0.00,,,0.00,VWS V14.01,2013-01-29 05:27:00,
2013-01-29 00:29:00,36.2,34.9,29.95,West,281,3.0,11.0,95,0.00,,,0.00,VWS V14.01,2013-01-29 05:29:00,
2013-01-29 00:30:00,36.2,34.9,29.95,West,266,6.0,11.0,95,0.00,,,0.00,VWS V14.01,2013-01-29 05:30:00,
2013-01-29 00:31:00,36.2,34.9,29.95,West,275,7.0,11.0,95,0.00,,,0.00,VWS V14.01,2013-01-29 05:31:00,
2013-01-29 00:36:00,36.3,35.0,29.95,West,262,2.0,8.0,95,0.00,,,0.00,VWS V14.01,2013-01-29 05:36:00,
2013-01-29 00:37:00,36.3,35.0,29.95,West,265,4.0,8.0,95,0.00,,,0.00,VWS V14.01,2013-01-29 05:37:00,
2013-01-29 00:39:00,36.3,35.0,29.95,WSW,256,7.0,11.0,95,0.00,,,0.00,VWS V14.01,2013-01-29 05:39:00,
2013-01-29 00:43:00,36.3,35.0,29.95,West,266,5.0,11.0,95,0.00,,,0.00,VWS V14.01,2013-01-29 05:43:00,
2013-01-29 00:44:00,36.3,35.0,29.95,West,280,1.0,11.0,95,0.00,,,0.00,VWS V14.01,2013-01-29 05:44:00,
2013-01-29 00:46:00,36.3,35.0,29.95,WNW,287,1.0,12.0,95,0.00,,,0.00,VWS V14.01,2013-01-29 05:46:00,
2013-01-29 00:49:00,36.3,35.0,29.95,West,269,3.0,12.0,95,0.00,,,0.00,VWS V14.01,2013-01-29 05:49:00,
2013-01-29 00:51:00,36.3,35.0,29.95,West,280,4.0,12.0,95,0.00,,,0.00,VWS V14.01,2013-01-29 05:51:00,
2013-01-29 00:54:00,36.3,35.0,29.95,West,278,2.0,12.0,95,0.00,,,0.00,VWS V14.01,2013-01-29 05:54:00,
2013-01-29 00:56:00,36.3,35.0,29.95,West,265,0.0,12.0,95,0.00,,,0.00,VWS V14.01,2013-01-29 05:56:00,
2013-01-29 01:00:00,36.3,35.0,29.95,WNW,295,3.0,12.0,95,0.00,,,0.00,VWS V14.01,2013-01-29 06:00:00,
2013-01-29 01:01:00,36.3,35.0,29.95,WNW,285,5.0,12.0,95,0.00,,,0.00,VWS V14.01,2013-01-29 06:01:00,
2013-01-29 01:02:00,36.3,35.0,29.95,West,278,3.0,12.0,95,0.00,,,0.00,VWS V14.01,2013-01-29 06:02:00,
2013-01-29 01:05:00,36.3,35.0,29.95,WNW,292,0.0,7.0,95,0.00,,,0.00,VWS V14.01,2013-01-29 06:05:00,
2013-01-29 01:06:00,36.3,35.0,29.95,WNW,296,5.0,7.0,95,0.00,,,0.00,VWS V14.01,2013-01-29 06:06:00,
2013-01-29 01:07:00,36.3,35.0,29.95,WNW,294,0.0,7.0,95,0.00,,,0.00,VWS V14.01,2013-01-29 06:07:00,
2013-01-29 01:11:00,36.3,35.0,29.95,West,281,2.0,8.0,95,0.00,,,0.00,VWS V14.01,2013-01-29 06:11:00,
2013-01-29 01:12:00,36.3,35.0,29.95,WNW,282,2.0,8.0,95,0.00,,,0.00,VWS V14.01,2013-01-29 06:12:00,
2013-01-29 01:15:00,36.3,35.0,29.95,WNW,290,0.0,8.0,95,0.00,,,0.00,VWS V14.01,2013-01-29 06:15:00,
2013-01-29 01:17:00,36.3,35.0,29.95,West,279,5.0,8.0,95,0.00,,,0.00,VWS V14.01,2013-01-29 06:17:00,
2013-01-29 01:18:00,36.2,34.9,29.95,West,277,0.0,8.0,95,0.00,,,0.00,VWS V14.01,2013-01-29 06:18:00,
2013-01-29 01:19:00,36.2,34.9,29.95,West,277,0.0,8.0,95,0.00,,,0.00,VWS V14.01,2013-01-29 06:19:00,
2013-01-29 01:22:00,36.2,34.9,29.95,WNW,290,2.0,9.0,95,0.00,,,0.00,VWS V14.01,2013-01-29 06:22:00,
2013-01-29 01:23:00,36.2,34.9,29.95,West,261,4.0,9.0,95,0.00,,,0.00,VWS V14.01,2013-01-29 06:23:00,
2013-01-29 01:27:00,36.2,34.9,29.95,WNW,284,0.0,9.0,95,0.00,,,0.00,VWS V14.01,2013-01-29 06:27:00,
2013-01-29 01:28:00,36.2,34.9,29.95,WNW,282,0.0,9.0,95,0.00,,,0.00,VWS V14.01,2013-01-29 06:28:00,
2013-01-29 01:29:00,36.2,34.9,29.95,West,281,0.0,9.0,95,0.00,,,0.00,VWS V14.01,2013-01-29 06:29:00,
2013-01-29 01:31:00,36.2,34.9,29.95,West,277,0.0,9.0,95,0.00,,,0.00,VWS V14.01,2013-01-29 06:31:00,
2013-01-29 01:32:00,36.0,34.7,29.95,West,277,0.0,9.0,95,0.00,,,0.00,VWS V14.01,2013-01-29 06:32:00,
2013-01-29 01:35:00,36.0,34.7,29.95,West,267,2.0,6.0,95,0.00,,,0.00,VWS V14.01,2013-01-29 06:35:00,
2013-01-29 01:37:00,36.0,34.7,29.95,West,267,4.0,6.0,95,0.00,,,0.00,VWS V14.01,2013-01-29 06:37:00,
2013-01-29 01:38:00,36.0,34.7,29.95,West,267,4.0,6.0,95,0.00,,,0.00,VWS V14.01,2013-01-29 06:38:00,
2013-01-29 01:41:00,35.9,34.6,29.95,West,265,0.0,6.0,95,0.00,,,0.00,VWS V14.01,2013-01-29 06:41:00,
2013-01-29 01:43:00,35.9,34.6,29.95,West,275,5.0,8.0,95,0.00,,,0.00,VWS V14.01,2013-01-29 06:43:00,
2013-01-29 01:47:00,35.9,34.6,29.95,West,277,1.0,8.0,95,0.00,,,0.00,VWS V14.01,2013-01-29 06:47:00,
2013-01-29 01:49:00,35.9,34.6,29.95,WNW,284,0.0,8.0,95,0.00,,,0.00,VWS V14.01,2013-01-29 06:49:00,
2013-01-29 01:50:00,35.9,34.6,29.95,WNW,296,0.0,8.0,95,0.00,,,0.00,VWS V14.01,2013-01-29 06:50:00,
2013-01-29 01:53:00,35.9,34.6,29.95,NW,309,0.0,8.0,95,0.00,,,0.00,VWS V14.01,2013-01-29 06:53:00,
2013-01-29 01:55:00,35.9,34.6,29.95,WNW,302,0.0,8.0,95,0.00,,,0.00,VWS V14.01,2013-01-29 06:55:00,
2013-01-29 01:56:00,35.9,34.6,29.95,WSW,258,0.0,8.0,95,0.00,,,0.00,VWS V14.01,2013-01-29 06:56:00,
2013-01-29 01:57:00,35.9,34.6,29.95,West,260,0.0,8.0,95,0.00,,,0.00,VWS V14.01,2013-01-29 06:57:00,
2013-01-29 01:58:00,35.9,34.6,29.95,West,260,0.0,8.0,95,0.00,,,0.00,VWS V14.01,2013-01-29 06:58:00,
2013-01-29 02:00:00,35.9,34.6,29.95,WNW,293,0.0,8.0,95,0.00,,,0.00,VWS V14.01,2013-01-29 07:00:00,
2013-01-29 02:02:00,35.8,34.5,29.95,WNW,288,0.0,8.0,95,0.00,,,0.00,VWS V14.01,2013-01-29 07:02:00,
2013-01-29 02:03:00,35.8,34.5,29.96,WNW,288,0.0,8.0,95,0.00,,,0.00,VWS V14.01,2013-01-29 07:03:00,
2013-01-29 02:05:00,35.8,34.5,29.96,WNW,290,5.0,6.0,95,0.00,,,0.00,VWS V14.01,2013-01-29 07:05:00,
2013-01-29 02:08:00,35.9,34.6,29.96,WNW,290,4.0,6.0,95,0.00,,,0.00,VWS V14.01,2013-01-29 07:08:00,
2013-01-29 02:10:00,35.9,34.6,29.96,WNW,288,0.0,7.0,95,0.00,,,0.00,VWS V14.01,2013-01-29 07:10:00,
2013-01-29 02:11:00,35.9,34.6,29.96,West,277,0.0,7.0,95,0.00,,,0.00,VWS V14.01,2013-01-29 07:11:00,
2013-01-29 02:14:00,35.9,34.6,29.96,West,268,3.0,7.0,95,0.00,,,0.00,VWS V14.01,2013-01-29 07:14:00,
2013-01-29 02:16:00,36.0,34.7,29.96,West,272,0.0,7.0,95,0.00,,,0.00,VWS V14.01,2013-01-29 07:16:00,
2013-01-29 02:17:00,36.0,34.7,29.96,WNW,292,0.0,7.0,95,0.00,,,0.00,VWS V14.01,2013-01-29 07:17:00,
2013-01-29 02:18:00,36.0,34.7,29.96,WNW,292,0.0,7.0,95,0.00,,,0.00,VWS V14.01,2013-01-29 07:18:00,
2013-01-29 02:19:00,36.0,34.7,29.96,WNW,292,0.0,7.0,95,0.00,,,0.00,VWS V14.01,2013-01-29 07:19:00,
2013-01-29 02:23:00,36.0,34.7,29.96,WNW,283,0.0,7.0,95,0.00,,,0.00,VWS V14.01,2013-01-29 07:23:00,
2013-01-29 02:25:00,36.0,34.7,29.96,WNW,283,0.0,7.0,95,0.00,,,0.00,VWS V14.01,2013-01-29 07:25:00,
2013-01-29 02:27:00,36.0,34.7,29.96,WNW,283,0.0,7.0,95,0.00,,,0.00,VWS V14.01,2013-01-29 07:27:00,
2013-01-29 02:28:00,36.0,34.7,29.96,WNW,283,0.0,7.0,95,0.00,,,0.00,VWS V14.01,2013-01-29 07:28:00,
2013-01-29 02:33:00,36.2,34.9,29.96,WNW,284,0.0,7.0,95,0.00,,,0.00,VWS V14.01,2013-01-29 07:33:00,
2013-01-29 02:34:00,36.2,34.9,29.96,WNW,284,0.0,0.0,95,0.00,,,0.00,VWS V14.01,2013-01-29 07:34:00,
2013-01-29 02:39:00,36.2,34.9,29.96,WNW,299,0.0,5.0,95,0.00,,,0.00,VWS V14.01,2013-01-29 07:39:00,
2013-01-29 02:40:00,36.2,34.9,29.96,WNW,298,3.0,5.0,95,0.00,,,0.00,VWS V14.01,2013-01-29 07:40:00,
2013-01-29 02:44:00,36.2,34.9,29.96,West,280,2.0,8.0,95,0.00,,,0.00,VWS V14.01,2013-01-29 07:44:00,
2013-01-29 02:45:00,36.2,34.9,29.96,West,280,0.0,8.0,95,0.00,,,0.00,VWS V14.01,2013-01-29 07:45:00,
2013-01-29 02:47:00,36.3,35.0,29.96,West,281,0.0,8.0,95,0.00,,,0.00,VWS V14.01,2013-01-29 07:47:00,
2013-01-29 02:49:00,36.3,35.0,29.96,West,263,6.0,8.0,95,0.00,,,0.00,VWS V14.01,2013-01-29 07:49:00,
2013-01-29 02:50:00,36.3,35.0,29.96,WSW,257,6.0,8.0,95,0.00,,,0.00,VWS V14.01,2013-01-29 07:50:00,
2013-01-29 02:51:00,36.3,35.0,29.96,WNW,283,3.0,8.0,95,0.00,,,0.00,VWS V14.01,2013-01-29 07:51:00,
2013-01-29 02:54:00,36.3,35.0,29.96,West,273,4.0,8.0,95,0.00,,,0.00,VWS V14.01,2013-01-29 07:54:00,
2013-01-29 02:56:00,36.3,35.0,29.96,West,273,6.0,8.0,95,0.00,,,0.00,VWS V14.01,2013-01-29 07:56:00,
2013-01-29 02:57:00,36.3,35.0,29.96,West,274,5.0,8.0,95,0.00,,,0.00,VWS V14.01,2013-01-29 07:57:00,
2013-01-29 02:59:00,36.3,35.0,29.96,West,275,0.0,8.0,95,0.00,,,0.00,VWS V14.01,2013-01-29 07:59:00,
2013-01-29 03:01:00,36.3,35.0,29.96,WSW,254,2.0,8.0,95,0.00,,,0.00,VWS V14.01,2013-01-29 08:01:00,
2013-01-29 03:02:00,36.3,35.0,29.96,West,260,0.0,8.0,95,0.00,,,0.00,VWS V14.01,2013-01-29 08:02:00,
2013-01-29 03:04:00,36.3,35.0,29.96,West,273,4.0,6.0,95,0.00,,,0.00,VWS V14.01,2013-01-29 08:04:00,
2013-01-29 03:06:00,36.3,35.0,29.96,West,275,0.0,6.0,95,0.00,,,0.00,VWS V14.01,2013-01-29 08:06:00,
2013-01-29 03:10:00,36.3,35.0,29.96,West,281,2.0,7.0,95,0.00,,,0.00,VWS V14.01,2013-01-29 08:10:00,
2013-01-29 03:11:00,36.5,35.2,29.96,West,280,0.0,7.0,95,0.00,,,0.00,VWS V14.01,2013-01-29 08:11:00,
2013-01-29 03:12:00,36.5,35.2,29.96,West,281,0.0,7.0,95,0.00,,,0.00,VWS V14.01,2013-01-29 08:12:00,
2013-01-29 03:13:00,36.5,35.5,29.96,WNW,285,0.0,7.0,96,0.00,,,0.00,VWS V14.01,2013-01-29 08:13:00,
2013-01-29 03:17:00,36.5,35.5,29.96,WSW,257,6.0,7.0,96,0.00,,,0.00,VWS V14.01,2013-01-29 08:17:00,
2013-01-29 03:20:00,36.6,35.6,29.96,WNW,294,6.0,7.0,96,0.00,,,0.00,VWS V14.01,2013-01-29 08:20:00,
2013-01-29 03:23:00,36.6,35.6,29.96,West,273,0.0,7.0,96,0.00,,,0.00,VWS V14.01,2013-01-29 08:23:00,
2013-01-29 03:25:00,36.6,35.3,29.96,West,266,4.0,8.0,95,0.00,,,0.00,VWS V14.01,2013-01-29 08:25:00,
2013-01-29 03:28:00,36.6,35.3,29.96,WNW,286,4.0,8.0,95,0.00,,,0.00,VWS V14.01,2013-01-29 08:28:00,
2013-01-29 03:30:00,36.6,35.6,29.96,West,275,3.0,8.0,96,0.00,,,0.00,VWS V14.01,2013-01-29 08:30:00,
2013-01-29 03:31:00,36.6,35.6,29.96,West,259,6.0,8.0,96,0.00,,,0.00,VWS V14.01,2013-01-29 08:31:00,
2013-01-29 03:35:00,36.8,35.8,29.96,West,269,4.0,7.0,96,0.00,,,0.00,VWS V14.01,2013-01-29 08:35:00,
2013-01-29 03:37:00,36.8,35.8,29.96,West,279,2.0,7.0,96,0.00,,,0.00,VWS V14.01,2013-01-29 08:37:00,
2013-01-29 03:38:00,36.8,35.8,29.96,West,273,4.0,7.0,96,0.00,,,0.00,VWS V14.01,2013-01-29 08:38:00,
2013-01-29 03:39:00,36.8,35.8,29.96,West,259,3.0,7.0,96,0.00,,,0.00,VWS V14.01,2013-01-29 08:39:00,
2013-01-29 03:44:00,36.9,35.9,29.96,West,279,6.0,8.0,96,0.00,,,0.00,VWS V14.01,2013-01-29 08:44:00,
2013-01-29 03:45:00,36.9,35.9,29.96,WSW,254,6.0,8.0,96,0.00,,,0.00,VWS V14.01,2013-01-29 08:45:00,
2013-01-29 03:46:00,36.9,35.9,29.96,West,266,4.0,8.0,96,0.00,,,0.00,VWS V14.01,2013-01-29 08:46:00,
2013-01-29 03:50:00,36.9,35.6,29.96,WSW,245,0.0,8.0,95,0.00,,,0.00,VWS V14.01,2013-01-29 08:50:00,
2013-01-29 03:51:00,36.9,35.6,29.96,West,275,6.0,9.0,95,0.00,,,0.00,VWS V14.01,2013-01-29 08:51:00,
2013-01-29 03:54:00,36.9,35.6,29.96,West,277,4.0,9.0,95,0.00,,,0.00,VWS V14.01,2013-01-29 08:54:00,
2013-01-29 03:57:00,36.9,35.9,29.96,West,279,5.0,9.0,96,0.00,,,0.00,VWS V14.01,2013-01-29 08:57:00,
2013-01-29 03:59:00,36.9,35.9,29.96,West,275,3.0,9.0,96,0.00,,,0.00,VWS V14.01,2013-01-29 08:59:00,
2013-01-29 04:00:00,36.9,35.6,29.96,West,273,3.0,9.0,95,0.00,,,0.00,VWS V14.01,2013-01-29 09:00:00,
2013-01-29 04:02:00,36.9,35.6,29.96,WNW,286,0.0,9.0,95,0.00,,,0.00,VWS V14.01,2013-01-29 09:02:00,
2013-01-29 04:03:00,36.9,35.6,29.96,WNW,284,0.0,9.0,95,0.00,,,0.00,VWS V14.01,2013-01-29 09:03:00,
2013-01-29 04:04:00,36.9,35.9,29.96,WNW,283,0.0,0.0,96,0.00,,,0.00,VWS V14.01,2013-01-29 09:04:00,
2013-01-29 04:05:00,37.0,35.7,29.96,West,280,0.0,0.0,95,0.00,,,0.00,VWS V14.01,2013-01-29 09:05:00,
2013-01-29 04:08:00,37.0,35.7,29.96,WSW,248,6.0,7.0,95,0.00,,,0.00,VWS V14.01,2013-01-29 09:08:00,
2013-01-29 04:12:00,37.0,35.7,29.96,West,269,3.0,8.0,95,0.00,,,0.00,VWS V14.01,2013-01-29 09:12:00,
2013-01-29 04:14:00,37.0,35.7,29.96,West,264,3.0,8.0,95,0.00,,,0.00,VWS V14.01,2013-01-29 09:14:00,
2013-01-29 04:16:00,37.0,35.7,29.96,West,262,3.0,8.0,95,0.00,,,0.00,VWS V14.01,2013-01-29 09:16:00,
2013-01-29 04:18:00,37.0,36.0,29.96,West,277,1.0,9.0,96,0.00,,,0.00,VWS V14.01,2013-01-29 09:18:00,
2013-01-29 04:20:00,37.0,36.0,29.96,West,276,1.0,9.0,96,0.00,,,0.00,VWS V14.01,2013-01-29 09:20:00,
2013-01-29 04:21:00,37.2,35.9,29.96,West,277,0.0,9.0,95,0.00,,,0.00,VWS V14.01,2013-01-29 09:21:00,
2013-01-29 04:25:00,37.2,35.9,29.96,West,261,4.0,9.0,95,0.00,,,0.00,VWS V14.01,2013-01-29 09:25:00,
2013-01-29 04:27:00,37.2,35.9,29.96,West,269,5.0,9.0,95,0.00,,,0.00,VWS V14.01,2013-01-29 09:27:00,
2013-01-29 04:29:00,37.2,35.9,29.96,West,270,5.0,9.0,95,0.00,,,0.00,VWS V14.01,2013-01-29 09:29:00,
2013-01-29 04:30:00,37.2,35.9,29.96,West,269,6.0,9.0,95,0.00,,,0.00,VWS V14.01,2013-01-29 09:30:00,
2013-01-29 04:33:00,37.2,35.9,29.97,West,266,3.0,9.0,95,0.00,,,0.00,VWS V14.01,2013-01-29 09:33:00,
2013-01-29 04:35:00,37.3,36.0,29.97,West,279,3.0,7.0,95,0.00,,,0.00,VWS V14.01,2013-01-29 09:35:00,
2013-01-29 04:36:00,37.3,36.0,29.97,WNW,285,0.0,7.0,95,0.00,,,0.00,VWS V14.01,2013-01-29 09:36:00,
2013-01-29 04:41:00,37.3,36.0,29.97,West,267,0.0,7.0,95,0.00,,,0.00,VWS V14.01,2013-01-29 09:41:00,
2013-01-29 04:42:00,37.3,36.0,29.97,West,271,4.0,7.0,95,0.00,,,0.00,VWS V14.01,2013-01-29 09:42:00,
2013-01-29 04:43:00,37.3,36.0,29.97,West,273,0.0,7.0,95,0.00,,,0.00,VWS V14.01,2013-01-29 09:43:00,
2013-01-29 04:44:00,37.3,36.0,29.97,West,279,1.0,7.0,95,0.00,,,0.00,VWS V14.01,2013-01-29 09:44:00,
2013-01-29 04:49:00,37.5,36.2,29.98,West,263,5.0,8.0,95,0.00,,,0.00,VWS V14.01,2013-01-29 09:49:00,
2013-01-29 04:50:00,37.5,36.2,29.98,West,272,6.0,8.0,95,0.00,,,0.00,VWS V14.01,2013-01-29 09:50:00,
2013-01-29 04:53:00,37.5,36.2,29.98,WNW,288,3.0,8.0,95,0.00,,,0.00,VWS V14.01,2013-01-29 09:53:00,
2013-01-29 04:56:00,37.6,36.3,29.98,WNW,290,0.0,8.0,95,0.00,,,0.00,VWS V14.01,2013-01-29 09:56:00,
2013-01-29 04:58:00,37.6,36.3,29.98,West,273,3.0,8.0,95,0.00,,,0.00,VWS V14.01,2013-01-29 09:58:00,
2013-01-29 04:59:00,37.6,36.3,29.98,West,275,5.0,8.0,95,0.00,,,0.00,VWS V14.01,2013-01-29 09:59:00,
2013-01-29 05:03:00,37.6,36.3,29.98,WNW,284,3.0,8.0,95,0.00,,,0.00,VWS V14.01,2013-01-29 10:03:00,
2013-01-29 05:05:00,37.6,36.3,29.98,WNW,284,0.0,6.0,95,0.00,,,0.00,VWS V14.01,2013-01-29 10:05:00,
2013-01-29 05:06:00,37.6,36.3,29.98,West,276,6.0,8.0,95,0.00,,,0.00,VWS V14.01,2013-01-29 10:06:00,
2013-01-29 05:09:00,37.6,36.3,29.98,West,270,3.0,8.0,95,0.00,,,0.00,VWS V14.01,2013-01-29 10:09:00,
2013-01-29 05:10:00,37.8,36.5,29.98,WNW,285,2.0,8.0,95,0.00,,,0.00,VWS V14.01,2013-01-29 10:10:00,
2013-01-29 05:11:00,37.8,36.5,29.98,West,274,6.0,8.0,95,0.00,,,0.00,VWS V14.01,2013-01-29 10:11:00,
2013-01-29 05:15:00,37.8,36.5,29.98,West,278,3.0,8.0,95,0.00,,,0.00,VWS V14.01,2013-01-29 10:15:00,
2013-01-29 05:17:00,37.8,36.5,29.98,West,269,3.0,8.0,95,0.00,,,0.00,VWS V14.01,2013-01-29 10:17:00,
2013-01-29 05:19:00,37.8,36.5,29.99,WNW,288,0.0,8.0,95,0.00,,,0.00,VWS V14.01,2013-01-29 10:19:00,
2013-01-29 05:20:00,37.8,36.5,29.99,WNW,288,3.0,8.0,95,0.00,,,0.00,VWS V14.01,2013-01-29 10:20:00,
2013-01-29 05:23:00,37.8,36.5,29.99,WNW,284,1.0,8.0,95,0.00,,,0.00,VWS V14.01,2013-01-29 10:23:00,
2013-01-29 05:25:00,37.8,36.5,29.99,WNW,294,4.0,8.0,95,0.00,,,0.00,VWS V14.01,2013-01-29 10:25:00,
2013-01-29 05:26:00,37.8,36.5,29.99,WNW,287,6.0,8.0,95,0.00,,,0.00,VWS V14.01,2013-01-29 10:26:00,
2013-01-29 05:27:00,37.8,36.5,29.99,West,275,2.0,8.0,95,0.00,,,0.00,VWS V14.01,2013-01-29 10:27:00,
2013-01-29 05:28:00,37.8,36.5,29.99,WNW,285,3.0,8.0,95,0.00,,,0.00,VWS V14.01,2013-01-29 10:28:00,
2013-01-29 05:30:00,37.9,36.6,29.99,WNW,286,8.0,8.0,95,0.00,,,0.00,VWS V14.01,2013-01-29 10:30:00,
2013-01-29 05:33:00,37.9,36.6,29.99,West,272,3.0,5.0,95,0.00,,,0.00,VWS V14.01,2013-01-29 10:33:00,
2013-01-29 05:34:00,37.9,36.6,29.99,WNW,286,7.0,8.0,95,0.00,,,0.00,VWS V14.01,2013-01-29 10:34:00,
2013-01-29 05:35:00,37.9,36.6,29.99,West,263,6.0,9.0,95,0.00,,,0.00,VWS V14.01,2013-01-29 10:35:00,
2013-01-29 05:36:00,37.9,36.6,29.99,West,275,4.0,9.0,95,0.00,,,0.00,VWS V14.01,2013-01-29 10:36:00,
2013-01-29 05:41:00,37.9,36.6,29.99,West,273,5.0,10.0,95,0.00,,,0.00,VWS V14.01,2013-01-29 10:41:00,
2013-01-29 05:43:00,37.9,36.6,29.99,West,278,4.0,10.0,95,0.00,,,0.00,VWS V14.01,2013-01-29 10:43:00,
2013-01-29 05:44:00,37.9,36.6,29.99,West,281,4.0,10.0,95,0.00,,,0.00,VWS V14.01,2013-01-29 10:44:00,
2013-01-29 05:46:00,38.0,36.7,29.99,WNW,284,5.0,10.0,95,0.00,,,0.00,VWS V14.01,2013-01-29 10:46:00,
2013-01-29 05:49:00,38.0,36.7,29.99,WNW,289,6.0,10.0,95,0.00,,,0.00,VWS V14.01,2013-01-29 10:49:00,
2013-01-29 05:50:00,38.0,36.7,29.99,NW,309,4.0,10.0,95,0.00,,,0.00,VWS V14.01,2013-01-29 10:50:00,
2013-01-29 05:51:00,38.2,36.9,29.99,West,279,0.0,10.0,95,0.00,,,0.00,VWS V14.01,2013-01-29 10:51:00,
2013-01-29 05:56:00,38.3,37.0,29.99,WNW,300,2.0,10.0,95,0.00,,,0.00,VWS V14.01,2013-01-29 10:56:00,
2013-01-29 05:57:00,38.3,37.0,29.99,WNW,289,3.0,10.0,95,0.00,,,0.00,VWS V14.01,2013-01-29 10:57:00,
2013-01-29 05:58:00,38.3,37.0,29.99,WNW,290,2.0,10.0,95,0.00,,,0.00,VWS V14.01,2013-01-29 10:58:00,
2013-01-29 06:02:00,38.3,37.0,29.99,WSW,250,2.0,11.0,95,0.00,,,0.00,VWS V14.01,2013-01-29 11:02:00,
2013-01-29 06:03:00,38.5,37.2,30.00,WNW,296,4.0,11.0,95,0.00,,,0.00,VWS V14.01,2013-01-29 11:03:00,
2013-01-29 06:04:00,38.5,37.2,30.00,West,273,6.0,7.0,95,0.00,,,0.00,VWS V14.01,2013-01-29 11:04:00,
2013-01-29 06:09:00,38.6,37.3,30.00,West,276,7.0,9.0,95,0.00,,,0.00,VWS V14.01,2013-01-29 11:09:00,
2013-01-29 06:10:00,38.6,37.3,30.00,West,281,0.0,9.0,95,0.00,,,0.00,VWS V14.01,2013-01-29 11:10:00,
2013-01-29 06:14:00,38.8,37.5,30.00,WNW,288,5.0,9.0,95,0.00,,,0.00,VWS V14.01,2013-01-29 11:14:00,
2013-01-29 06:15:00,38.8,37.5,30.00,WNW,294,2.0,9.0,95,0.00,,,0.00,VWS V14.01,2013-01-29 11:15:00,
2013-01-29 06:17:00,38.8,37.5,30.01,WNW,292,7.0,9.0,95,0.00,,,0.00,VWS V14.01,2013-01-29 11:17:00,
2013-01-29 06:19:00,38.9,37.6,30.01,WNW,297,6.0,9.0,95,0.00,,,0.00,VWS V14.01,2013-01-29 11:19:00,
2013-01-29 06:24:00,39.1,37.8,30.01,WNW,289,2.0,9.0,95,0.00,,,0.00,VWS V14.01,2013-01-29 11:24:00,
2013-01-29 06:25:00,39.1,37.8,30.01,NW,305,4.0,9.0,95,0.00,,,0.00,VWS V14.01,2013-01-29 11:25:00,
2013-01-29 06:28:00,39.2,37.9,30.01,WNW,301,6.0,9.0,95,0.00,,,0.00,VWS V14.01,2013-01-29 11:28:00,
2013-01-29 06:30:00,39.2,37.9,30.01,WNW,300,4.0,9.0,95,0.00,,,0.00,VWS V14.01,2013-01-29 11:30:00,
2013-01-29 06:31:00,39.2,37.9,30.01,WNW,301,0.0,9.0,95,0.00,,,0.00,VWS V14.01,2013-01-29 11:31:00,
2013-01-29 06:33:00,39.2,37.9,30.01,WNW,302,0.0,9.0,95,0.00,,,0.00,VWS V14.01,2013-01-29 11:33:00,
2013-01-29 06:37:00,39.3,38.0,30.01,NW,320,4.0,8.0,95,0.00,,,0.00,VWS V14.01,2013-01-29 11:37:00,
2013-01-29 06:38:00,39.3,38.0,30.01,NW,313,0.0,8.0,95,0.00,,,0.00,VWS V14.01,2013-01-29 11:38:00,
2013-01-29 06:39:00,39.3,38.0,30.01,NW,313,0.0,8.0,95,0.00,,,0.00,VWS V14.01,2013-01-29 11:39:00,
2013-01-29 06:43:00,39.3,38.0,30.01,NW,306,4.0,8.0,95,0.00,,,0.00,VWS V14.01,2013-01-29 11:43:00,
2013-01-29 06:44:00,39.3,38.0,30.01,WNW,288,5.0,8.0,95,0.00,,,0.00,VWS V14.01,2013-01-29 11:44:00,
2013-01-29 06:45:00,39.5,38.2,30.01,WNW,292,0.0,8.0,95,0.00,,,0.00,VWS V14.01,2013-01-29 11:45:00,
2013-01-29 06:46:00,39.5,38.2,30.01,WNW,294,0.0,8.0,95,0.00,,,0.00,VWS V14.01,2013-01-29 11:46:00,
2013-01-29 06:51:00,39.5,37.9,30.02,NW,320,0.0,8.0,94,0.00,,,0.00,VWS V14.01,2013-01-29 11:51:00,
2013-01-29 06:53:00,39.5,37.9,30.02,NNW,343,0.0,8.0,94,0.00,,,0.00,VWS V14.01,2013-01-29 11:53:00,
2013-01-29 06:56:00,39.6,38.0,30.02,WNW,301,3.0,8.0,94,0.00,,,0.00,VWS V14.01,2013-01-29 11:56:00,
2013-01-29 06:57:00,39.6,38.3,30.02,WNW,299,4.0,8.0,95,0.00,,,0.00,VWS V14.01,2013-01-29 11:57:00,
2013-01-29 06:58:00,39.6,38.0,30.02,WNW,284,5.0,8.0,94,0.00,,,0.00,VWS V14.01,2013-01-29 11:58:00,
2013-01-29 07:00:00,39.6,38.0,30.02,WNW,283,0.0,8.0,94,0.00,,,0.00,VWS V14.01,2013-01-29 12:00:00,
2013-01-29 07:02:00,39.6,38.0,30.02,NW,309,1.0,8.0,94,0.00,,,0.00,VWS V14.01,2013-01-29 12:02:00,
2013-01-29 07:04:00,39.6,38.0,30.03,NW,313,0.0,0.0,94,0.00,,,0.00,VWS V14.01,2013-01-29 12:04:00,
2013-01-29 07:06:00,39.8,38.2,30.03,WNW,302,4.0,6.0,94,0.00,,,0.00,VWS V14.01,2013-01-29 12:06:00,
2013-01-29 07:08:00,39.8,38.2,30.03,WNW,290,3.0,7.0,94,0.00,,,0.00,VWS V14.01,2013-01-29 12:08:00,
2013-01-29 07:10:00,39.9,38.3,30.03,WNW,298,5.0,7.0,94,0.00,,,0.00,VWS V14.01,2013-01-29 12:10:00,
2013-01-29 07:12:00,39.9,38.3,30.03,WNW,295,3.0,7.0,94,0.00,,,0.00,VWS V14.01,2013-01-29 12:12:00,
2013-01-29 07:14:00,39.9,38.3,30.03,WNW,295,0.0,7.0,94,0.00,,,0.00,VWS V14.01,2013-01-29 12:14:00,
2013-01-29 07:15:00,39.9,38.3,30.03,NW,325,2.0,7.0,94,0.00,,,0.00,VWS V14.01,2013-01-29 12:15:00,
2013-01-29 07:17:00,40.1,38.5,30.03,NW,315,4.0,9.0,94,0.00,,,0.00,VWS V14.01,2013-01-29 12:17:00,
2013-01-29 07:19:00,40.1,38.5,30.03,NW,310,3.0,9.0,94,0.00,,,0.00,VWS V14.01,2013-01-29 12:19:00,
2013-01-29 07:20:00,40.1,38.5,30.03,NNW,330,5.0,10.0,94,0.00,,,0.00,VWS V14.01,2013-01-29 12:20:00,
2013-01-29 07:21:00,40.2,38.6,30.03,NNW,340,7.0,10.0,94,0.00,,,0.00,VWS V14.01,2013-01-29 12:21:00,
2013-01-29 07:26:00,40.2,38.6,30.03,NW,321,7.0,10.0,94,0.00,,,0.00,VWS V14.01,2013-01-29 12:26:00,
2013-01-29 07:27:00,40.3,38.7,30.03,NW,322,2.0,10.0,94,0.00,,,0.00,VWS V14.01,2013-01-29 12:27:00,
2013-01-29 07:32:00,40.3,38.7,30.03,NW,311,2.0,10.0,94,0.00,,,0.00,VWS V14.01,2013-01-29 12:32:00,
2013-01-29 07:33:00,40.3,38.7,30.04,West,275,2.0,10.0,94,0.00,,,0.00,VWS V14.01,2013-01-29 12:33:00,
2013-01-29 07:35:00,40.3,38.7,30.04,WNW,300,3.0,7.0,94,0.00,,,0.00,VWS V14.01,2013-01-29 12:35:00,
2013-01-29 07:37:00,40.3,38.7,30.04,WNW,287,3.0,7.0,94,0.00,,,0.00,VWS V14.01,2013-01-29 12:37:00,
2013-01-29 07:39:00,40.3,38.7,30.04,WNW,302,2.0,8.0,94,0.00,,,0.00,VWS V14.01,2013-01-29 12:39:00,
2013-01-29 07:40:00,40.5,38.9,30.04,WNW,294,1.0,8.0,94,0.00,,,0.00,VWS V14.01,2013-01-29 12:40:00,
2013-01-29 07:41:00,40.5,38.9,30.04,WNW,298,3.0,8.0,94,0.00,,,0.00,VWS V14.01,2013-01-29 12:41:00,
2013-01-29 07:42:00,40.5,38.9,30.04,NW,309,6.0,8.0,94,0.00,,,0.00,VWS V14.01,2013-01-29 12:42:00,
2013-01-29 07:46:00,40.6,39.0,30.04,WNW,289,0.0,8.0,94,0.00,,,0.00,VWS V14.01,2013-01-29 12:46:00,
2013-01-29 07:47:00,40.6,39.0,30.04,West,281,4.0,8.0,94,0.00,,,0.00,VWS V14.01,2013-01-29 12:47:00,
2013-01-29 07:51:00,40.8,39.2,30.05,West,281,4.0,8.0,94,0.00,,,0.00,VWS V14.01,2013-01-29 12:51:00,
2013-01-29 07:52:00,40.8,39.2,30.05,WNW,290,4.0,8.0,94,0.00,,,0.00,VWS V14.01,2013-01-29 12:52:00,
2013-01-29 07:53:00,40.8,39.2,30.05,WNW,300,2.0,8.0,94,0.00,,,0.00,VWS V14.01,2013-01-29 12:53:00,
2013-01-29 07:57:00,40.9,39.3,30.05,WNW,293,5.0,8.0,94,0.00,,,0.00,VWS V14.01,2013-01-29 12:57:00,
2013-01-29 07:58:00,41.1,39.5,30.05,WNW,290,5.0,10.0,94,0.00,,,0.00,VWS V14.01,2013-01-29 12:58:00,
2013-01-29 07:59:00,41.1,39.5,30.05,NW,304,7.0,10.0,94,0.00,,,0.00,VWS V14.01,2013-01-29 12:59:00,
2013-01-29 08:00:00,41.1,39.5,30.05,WNW,302,4.0,10.0,94,0.00,,,0.00,VWS V14.01,2013-01-29 13:00:00,
2013-01-29 08:02:00,41.2,39.6,30.04,WNW,299,0.0,10.0,94,0.00,,,0.00,VWS V14.01,2013-01-29 13:02:00,
2013-01-29 08:04:00,41.2,39.6,30.04,WNW,290,6.0,6.0,94,0.00,,,0.00,VWS V14.01,2013-01-29 13:04:00,
2013-01-29 08:05:00,41.2,39.6,30.04,WNW,292,2.0,6.0,94,0.00,,,0.00,VWS V14.01,2013-01-29 13:05:00,
2013-01-29 08:06:00,41.2,39.6,30.04,WNW,293,0.0,6.0,94,0.00,,,0.00,VWS V14.01,2013-01-29 13:06:00,
2013-01-29 08:10:00,41.5,39.9,30.04,NW,325,5.0,6.0,94,0.00,,,0.00,VWS V14.01,2013-01-29 13:10:00,
2013-01-29 08:11:00,41.5,39.9,30.04,NW,322,0.0,6.0,94,0.00,,,0.00,VWS V14.01,2013-01-29 13:11:00,
2013-01-29 08:12:00,41.6,40.0,30.04,NNW,329,2.0,9.0,94,0.00,,,0.00,VWS V14.01,2013-01-29 13:12:00,
2013-01-29 08:14:00,41.8,40.2,30.04,NW,323,2.0,9.0,94,0.00,,,0.00,VWS V14.01,2013-01-29 13:14:00,
2013-01-29 08:17:00,41.9,40.3,30.04,North,10,7.0,9.0,94,0.00,,,0.00,VWS V14.01,2013-01-29 13:17:00,
2013-01-29 08:18:00,41.9,40.3,30.04,North,360,6.0,9.0,94,0.00,,,0.00,VWS V14.01,2013-01-29 13:18:00,
2013-01-29 08:19:00,42.1,40.5,30.04,NNW,343,5.0,9.0,94,0.00,,,0.00,VWS V14.01,2013-01-29 13:19:00,
2013-01-29 08:23:00,42.2,40.6,30.04,North,9,9.0,11.0,94,0.00,,,0.00,VWS V14.01,2013-01-29 13:23:00,
2013-01-29 08:24:00,42.2,40.6,30.04,NNE,19,6.0,11.0,94,0.00,,,0.00,VWS V14.01,2013-01-29 13:24:00,
2013-01-29 08:26:00,42.3,40.7,30.04,NNE,17,3.0,11.0,94,0.00,,,0.00,VWS V14.01,2013-01-29 13:26:00,
2013-01-29 08:29:00,42.5,40.9,30.04,North,360,8.0,11.0,94,0.00,,,0.00,VWS V14.01,2013-01-29 13:29:00,
2013-01-29 08:30:00,42.6,41.0,30.04,North,5,6.0,11.0,94,0.00,,,0.00,VWS V14.01,2013-01-29 13:30:00,
2013-01-29 08:31:00,42.6,41.0,30.04,NNW,340,6.0,11.0,94,0.00,,,0.00,VWS V14.01,2013-01-29 13:31:00,
2013-01-29 08:34:00,42.9,41.3,30.04,NNW,340,6.0,11.0,94,0.00,,,0.00,VWS V14.01,2013-01-29 13:34:00,
2013-01-29 08:35:00,43.1,41.5,30.04,NE,37,8.0,11.0,94,0.00,,,0.00,VWS V14.01,2013-01-29 13:35:00,
2013-01-29 08:37:00,43.3,41.7,30.04,North,351,4.0,11.0,94,0.00,,,0.00,VWS V14.01,2013-01-29 13:37:00,
2013-01-29 08:38:00,43.3,41.7,30.04,North,355,7.0,11.0,94,0.00,,,0.00,VWS V14.01,2013-01-29 13:38:00,
2013-01-29 08:40:00,43.6,42.0,30.04,NNW,341,4.0,11.0,94,0.00,,,0.00,VWS V14.01,2013-01-29 13:40:00,
2013-01-29 08:43:00,44.3,42.7,30.04,NNW,340,6.0,11.0,94,0.00,,,0.00,VWS V14.01,2013-01-29 13:43:00,
2013-01-29 08:44:00,44.6,43.0,30.04,NW,309,5.0,11.0,94,0.00,,,0.00,VWS V14.01,2013-01-29 13:44:00,
2013-01-29 08:48:00,45.4,42.9,30.04,NW,310,4.0,11.0,91,0.00,,,0.00,VWS V14.01,2013-01-29 13:48:00,
2013-01-29 08:49:00,45.5,42.7,30.04,NW,323,2.0,11.0,90,0.00,,,0.00,VWS V14.01,2013-01-29 13:49:00,
2013-01-29 08:50:00,45.5,42.5,30.04,NW,319,0.0,11.0,89,0.00,,,0.00,VWS V14.01,2013-01-29 13:50:00,
2013-01-29 08:54:00,46.1,42.5,30.04,NW,315,0.0,11.0,87,0.00,,,0.00,VWS V14.01,2013-01-29 13:54:00,
2013-01-29 08:55:00,46.2,42.2,30.04,NW,312,0.0,11.0,86,0.00,,,0.00,VWS V14.01,2013-01-29 13:55:00,
2013-01-29 08:56:00,46.4,42.5,30.04,NW,312,0.0,11.0,86,0.00,,,0.00,VWS V14.01,2013-01-29 13:56:00,
2013-01-29 08:57:00,46.5,42.2,30.04,NW,320,6.0,11.0,85,0.00,,,0.00,VWS V14.01,2013-01-29 13:57:00,
2013-01-29 08:59:00,46.8,42.5,30.04,North,350,0.0,11.0,85,0.00,,,0.00,VWS V14.01,2013-01-29 13:59:00,
2013-01-29 09:01:00,47.1,42.5,30.04,NW,324,6.0,11.0,84,0.00,,,0.00,VWS V14.01,2013-01-29 14:01:00,
2013-01-29 09:03:00,47.4,42.5,30.04,WNW,296,0.0,11.0,83,0.00,,,0.00,VWS V14.01,2013-01-29 14:03:00,
2013-01-29 09:08:00,47.4,42.2,30.04,NW,307,0.0,6.0,82,0.00,,,0.00,VWS V14.01,2013-01-29 14:08:00,
2013-01-29 09:09:00,47.4,42.2,30.04,NW,306,0.0,6.0,82,0.00,,,0.00,VWS V14.01,2013-01-29 14:09:00,
2013-01-29 09:11:00,47.4,42.2,30.04,NW,306,0.0,6.0,82,0.00,,,0.00,VWS V14.01,2013-01-29 14:11:00,
2013-01-29 09:13:00,47.4,42.5,30.04,NW,306,0.0,6.0,83,0.00,,,0.00,VWS V14.01,2013-01-29 14:13:00,
2013-01-29 09:15:00,47.4,42.2,30.04,NW,306,0.0,6.0,82,0.00,,,0.00,VWS V14.01,2013-01-29 14:15:00,
2013-01-29 09:18:00,47.6,42.4,30.05,NW,306,0.0,6.0,82,0.00,,,0.00,VWS V14.01,2013-01-29 14:18:00,
2013-01-29 09:19:00,47.6,42.4,30.05,NW,306,0.0,6.0,82,0.00,,,0.00,VWS V14.01,2013-01-29 14:19:00,
2013-01-29 09:20:00,47.7,42.5,30.05,NW,306,0.0,6.0,82,0.00,,,0.00,VWS V14.01,2013-01-29 14:20:00,
2013-01-29 09:24:00,47.9,42.7,30.05,NW,306,0.0,6.0,82,0.00,,,0.00,VWS V14.01,2013-01-29 14:24:00,
2013-01-29 09:25:00,47.9,42.7,30.05,NW,306,0.0,6.0,82,0.00,,,0.00,VWS V14.01,2013-01-29 14:25:00,
2013-01-29 09:26:00,47.9,42.7,30.05,NW,306,0.0,6.0,82,0.00,,,0.00,VWS V14.01,2013-01-29 14:26:00,
2013-01-29 09:29:00,47.9,42.4,30.05,NW,306,0.0,6.0,81,0.00,,,0.00,VWS V14.01,2013-01-29 14:29:00,
2013-01-29 09:30:00,47.9,42.4,30.05,NW,306,0.0,6.0,81,0.00,,,0.00,VWS V14.01,2013-01-29 14:30:00,
2013-01-29 09:32:00,48.0,42.5,30.05,NW,306,0.0,6.0,81,0.00,,,0.00,VWS V14.01,2013-01-29 14:32:00,
2013-01-29 09:33:00,48.0,42.5,30.05,NW,306,0.0,6.0,81,0.00,,,0.00,VWS V14.01,2013-01-29 14:33:00,
2013-01-29 09:36:00,48.0,42.8,30.05,NW,306,0.0,0.0,82,0.00,,,0.00,VWS V14.01,2013-01-29 14:36:00,
2013-01-29 09:38:00,48.2,42.7,30.05,NW,306,0.0,0.0,81,0.00,,,0.00,VWS V14.01,2013-01-29 14:38:00,
2013-01-29 09:40:00,48.2,42.7,30.05,NW,306,0.0,0.0,81,0.00,,,0.00,VWS V14.01,2013-01-29 14:40:00,
2013-01-29 09:41:00,48.2,42.7,30.05,NW,306,0.0,0.0,81,0.00,,,0.00,VWS V14.01,2013-01-29 14:41:00,
2013-01-29 09:42:00,48.3,42.8,30.05,NW,306,0.0,0.0,81,0.00,,,0.00,VWS V14.01,2013-01-29 14:42:00,
2013-01-29 09:45:00,48.5,43.0,30.05,NW,305,0.0,4.0,81,0.00,,,0.00,VWS V14.01,2013-01-29 14:45:00,
2013-01-29 09:46:00,48.6,43.0,30.05,NW,305,0.0,4.0,81,0.00,,,0.00,VWS V14.01,2013-01-29 14:46:00,
2013-01-29 09:47:00,48.6,43.0,30.06,NW,305,0.0,4.0,81,0.00,,,0.00,VWS V14.01,2013-01-29 14:47:00,
2013-01-29 09:51:00,48.9,43.0,30.06,WSW,239,0.0,4.0,80,0.00,,,0.00,VWS V14.01,2013-01-29 14:51:00,
2013-01-29 09:52:00,48.9,43.0,30.06,SW,235,4.0,4.0,80,0.00,,,0.00,VWS V14.01,2013-01-29 14:52:00,
2013-01-29 09:56:00,48.8,42.9,30.06,SW,235,0.0,4.0,80,0.00,,,0.00,VWS V14.01,2013-01-29 14:56:00,
2013-01-29 09:57:00,48.8,42.9,30.06,SW,235,0.0,4.0,80,0.00,,,0.00,VWS V14.01,2013-01-29 14:57:00,
2013-01-29 09:58:00,48.8,42.9,30.06,SW,235,0.0,4.0,80,0.00,,,0.00,VWS V14.01,2013-01-29 14:58:00,
2013-01-29 10:02:00,48.8,42.9,30.06,SW,235,0.0,4.0,80,0.00,,,0.00,VWS V14.01,2013-01-29 15:02:00,
2013-01-29 10:03:00,48.8,42.9,30.07,SW,235,0.0,4.0,80,0.00,,,0.00,VWS V14.01,2013-01-29 15:03:00,
2013-01-29 10:07:00,48.8,42.9,30.07,SW,236,0.0,0.0,80,0.00,,,0.00,VWS V14.01,2013-01-29 15:07:00,
2013-01-29 10:08:00,48.8,42.9,30.07,SW,236,0.0,0.0,80,0.00,,,0.00,VWS V14.01,2013-01-29 15:08:00,
2013-01-29 10:10:00,48.8,42.9,30.07,SW,235,0.0,0.0,80,0.00,,,0.00,VWS V14.01,2013-01-29 15:10:00,
2013-01-29 10:12:00,48.8,42.9,30.07,SW,235,0.0,0.0,80,0.00,,,0.00,VWS V14.01,2013-01-29 15:12:00,
2013-01-29 10:13:00,48.8,42.9,30.07,SW,235,0.0,0.0,80,0.00,,,0.00,VWS V14.01,2013-01-29 15:13:00,
2013-01-29 10:17:00,48.8,42.9,30.07,SW,235,0.0,0.0,80,0.00,,,0.00,VWS V14.01,2013-01-29 15:17:00,
2013-01-29 10:18:00,48.8,42.9,30.07,SW,235,0.0,0.0,80,0.00,,,0.00,VWS V14.01,2013-01-29 15:18:00,
2013-01-29 10:19:00,48.9,43.0,30.07,SW,236,0.0,0.0,80,0.00,,,0.00,VWS V14.01,2013-01-29 15:19:00,
2013-01-29 10:20:00,48.9,43.0,30.07,SW,236,0.0,0.0,80,0.00,,,0.00,VWS V14.01,2013-01-29 15:20:00,
2013-01-29 10:23:00,48.9,43.0,30.07,SW,236,0.0,0.0,80,0.00,,,0.00,VWS V14.01,2013-01-29 15:23:00,
2013-01-29 10:25:00,49.1,43.2,30.07,SW,236,0.0,0.0,80,0.00,,,0.00,VWS V14.01,2013-01-29 15:25:00,
2013-01-29 10:27:00,49.1,43.2,30.07,WSW,238,0.0,2.0,80,0.00,,,0.00,VWS V14.01,2013-01-29 15:27:00,
2013-01-29 10:29:00,49.2,43.3,30.07,WSW,240,0.0,4.0,80,0.00,,,0.00,VWS V14.01,2013-01-29 15:29:00,
2013-01-29 10:30:00,49.2,43.3,30.07,WSW,240,0.0,4.0,80,0.00,,,0.00,VWS V14.01,2013-01-29 15:30:00,
2013-01-29 10:34:00,49.5,43.6,30.08,WSW,240,0.0,0.0,80,0.00,,,0.00,VWS V14.01,2013-01-29 15:34:00,
2013-01-29 10:35:00,49.5,43.6,30.08,WSW,240,0.0,0.0,80,0.00,,,0.00,VWS V14.01,2013-01-29 15:35:00,
2013-01-29 10:36:00,49.5,43.6,30.08,WSW,240,0.0,0.0,80,0.00,,,0.00,VWS V14.01,2013-01-29 15:36:00,
2013-01-29 10:37:00,49.5,43.6,30.08,WSW,240,0.0,0.0,80,0.00,,,0.00,VWS V14.01,2013-01-29 15:37:00,
2013-01-29 10:42:00,49.8,43.9,30.08,WSW,240,0.0,0.0,80,0.00,,,0.00,VWS V14.01,2013-01-29 15:42:00,
2013-01-29 10:43:00,49.8,43.9,30.08,WSW,240,0.0,0.0,80,0.00,,,0.00,VWS V14.01,2013-01-29 15:43:00,
2013-01-29 10:44:00,49.8,43.9,30.08,WSW,240,0.0,0.0,80,0.00,,,0.00,VWS V14.01,2013-01-29 15:44:00,
2013-01-29 10:50:00,49.9,43.7,30.07,WSW,240,0.0,0.0,79,0.00,,,0.00,VWS V14.01,2013-01-29 15:50:00,
2013-01-29 10:52:00,50.1,43.8,30.07,WSW,240,0.0,4.0,79,0.00,,,0.00,VWS V14.01,2013-01-29 15:52:00,
2013-01-29 10:53:00,50.2,44.0,30.07,WSW,240,0.0,4.0,79,0.00,,,0.00,VWS V14.01,2013-01-29 15:53:00,
2013-01-29 10:57:00,50.4,44.1,30.07,WSW,240,0.0,4.0,79,0.00,,,0.00,VWS V14.01,2013-01-29 15:57:00,
2013-01-29 10:58:00,50.5,44.2,30.07,SW,236,2.0,4.0,79,0.00,,,0.00,VWS V14.01,2013-01-29 15:58:00,
2013-01-29 10:59:00,50.5,44.2,30.07,SW,236,0.0,4.0,79,0.00,,,0.00,VWS V14.01,2013-01-29 15:59:00,
2013-01-29 11:00:00,50.7,44.4,30.07,SW,236,0.0,4.0,79,0.00,,,0.00,VWS V14.01,2013-01-29 16:00:00,
2013-01-29 11:03:00,50.8,44.2,30.07,SW,236,3.0,4.0,78,0.00,,,0.00,VWS V14.01,2013-01-29 16:03:00,
2013-01-29 11:05:00,50.8,44.2,30.07,WSW,238,5.0,5.0,78,0.00,,,0.00,VWS V14.01,2013-01-29 16:05:00,
2013-01-29 11:06:00,50.8,44.2,30.07,WSW,238,4.0,6.0,78,0.00,,,0.00,VWS V14.01,2013-01-29 16:06:00,
2013-01-29 11:09:00,50.7,43.8,30.07,WSW,238,0.0,6.0,77,0.00,,,0.00,VWS V14.01,2013-01-29 16:09:00,
2013-01-29 11:11:00,50.8,43.9,30.07,WSW,238,0.0,6.0,77,0.00,,,0.00,VWS V14.01,2013-01-29 16:11:00,
2013-01-29 11:12:00,50.7,43.8,30.07,WSW,238,0.0,6.0,77,0.00,,,0.00,VWS V14.01,2013-01-29 16:12:00,
2013-01-29 11:14:00,50.7,43.8,30.07,WSW,238,0.0,6.0,77,0.00,,,0.00,VWS V14.01,2013-01-29 16:14:00,
2013-01-29 11:16:00,50.8,43.9,30.07,WSW,238,0.0,6.0,77,0.00,,,0.00,VWS V14.01,2013-01-29 16:16:00,
2013-01-29 11:18:00,50.8,43.9,30.07,WSW,238,0.0,6.0,77,0.00,,,0.00,VWS V14.01,2013-01-29 16:18:00,
2013-01-29 11:19:00,50.8,43.9,30.07,WSW,238,0.0,6.0,77,0.00,,,0.00,VWS V14.01,2013-01-29 16:19:00,
2013-01-29 11:20:00,50.8,43.9,30.07,WSW,238,0.0,6.0,77,0.00,,,0.00,VWS V14.01,2013-01-29 16:20:00,
2013-01-29 11:23:00,50.8,43.9,30.07,WSW,238,0.0,6.0,77,0.00,,,0.00,VWS V14.01,2013-01-29 16:23:00,
2013-01-29 11:25:00,50.8,43.9,30.07,WSW,238,0.0,6.0,77,0.00,,,0.00,VWS V14.01,2013-01-29 16:25:00,
2013-01-29 11:26:00,50.8,43.9,30.07,WSW,238,0.0,6.0,77,0.00,,,0.00,VWS V14.01,2013-01-29 16:26:00,
2013-01-29 11:27:00,50.8,43.9,30.07,WSW,238,0.0,6.0,77,0.00,,,0.00,VWS V14.01,2013-01-29 16:27:00,
2013-01-29 11:28:00,50.8,43.5,30.07,WSW,238,0.0,6.0,76,0.00,,,0.00,VWS V14.01,2013-01-29 16:28:00,
2013-01-29 11:32:00,50.8,43.5,30.05,WSW,237,0.0,6.0,76,0.00,,,0.00,VWS V14.01,2013-01-29 16:32:00,
2013-01-29 11:33:00,50.8,43.5,30.05,SW,236,0.0,6.0,76,0.00,,,0.00,VWS V14.01,2013-01-29 16:33:00,
2013-01-29 11:34:00,50.8,43.5,30.05,SW,236,0.0,0.0,76,0.00,,,0.00,VWS V14.01,2013-01-29 16:34:00,
2013-01-29 11:35:00,50.8,43.5,30.05,SW,236,0.0,0.0,76,0.00,,,0.00,VWS V14.01,2013-01-29 16:35:00,
2013-01-29 11:39:00,50.5,42.9,30.05,South,190,0.0,0.0,75,0.00,,,0.00,VWS V14.01,2013-01-29 16:39:00,
2013-01-29 11:40:00,49.9,42.0,30.05,South,190,0.0,0.0,74,0.00,,,0.00,VWS V14.01,2013-01-29 16:40:00,
2013-01-29 11:41:00,49.4,42.2,30.05,South,190,0.0,0.0,76,0.00,,,0.00,VWS V14.01,2013-01-29 16:41:00,
2013-01-29 11:43:00,48.5,42.0,30.05,South,171,0.0,0.0,78,0.00,,,0.00,VWS V14.01,2013-01-29 16:43:00,
2013-01-29 11:47:00,47.3,41.5,30.05,SE,140,0.0,0.0,80,0.00,,,0.00,VWS V14.01,2013-01-29 16:47:00,
2013-01-29 11:48:00,47.0,41.2,30.04,SE,140,0.0,0.0,80,0.00,,,0.00,VWS V14.01,2013-01-29 16:48:00,
2013-01-29 11:49:00,46.7,41.2,30.04,SE,140,0.0,0.0,81,0.00,,,0.00,VWS V14.01,2013-01-29 16:49:00,
2013-01-29 11:53:00,46.7,41.8,30.04,SE,140,0.0,2.0,83,0.00,,,0.00,VWS V14.01,2013-01-29 16:53:00,
2013-01-29 11:54:00,46.7,41.8,30.04,SE,140,0.0,2.0,83,0.00,,,0.00,VWS V14.01,2013-01-29 16:54:00,
2013-01-29 11:55:00,46.7,41.8,30.04,SE,142,1.0,5.0,83,0.00,,,0.00,VWS V14.01,2013-01-29 16:55:00,
2013-01-29 11:59:00,46.5,41.6,30.04,SE,145,0.0,5.0,83,0.00,,,0.00,VWS V14.01,2013-01-29 16:59:00,
2013-01-29 12:00:00,46.7,42.1,30.04,SSE,147,0.0,5.0,84,0.00,,,0.00,VWS V14.01,2013-01-29 17:00:00,
2013-01-29 12:01:00,46.7,41.8,30.04,SSE,148,0.0,5.0,83,0.00,,,0.00,VWS V14.01,2013-01-29 17:01:00,
2013-01-29 12:03:00,47.1,42.5,30.04,SSE,149,1.0,5.0,84,0.00,,,0.00,VWS V14.01,2013-01-29 17:03:00,
2013-01-29 12:05:00,47.4,42.5,30.04,SSE,150,0.0,4.0,83,0.00,,,0.00,VWS V14.01,2013-01-29 17:05:00,
2013-01-29 12:06:00,47.6,42.7,30.04,SSE,148,0.0,5.0,83,0.00,,,0.00,VWS V14.01,2013-01-29 17:06:00,
2013-01-29 12:07:00,47.6,42.4,30.04,SSE,148,0.0,5.0,82,0.00,,,0.00,VWS V14.01,2013-01-29 17:07:00,
2013-01-29 12:10:00,47.6,42.4,30.04,SSE,151,0.0,5.0,82,0.00,,,0.00,VWS V14.01,2013-01-29 17:10:00,
2013-01-29 12:11:00,47.7,42.5,30.04,SSE,151,0.0,5.0,82,0.00,,,0.00,VWS V14.01,2013-01-29 17:11:00,
2013-01-29 12:12:00,47.7,42.5,30.04,SSE,151,0.0,5.0,82,0.00,,,0.00,VWS V14.01,2013-01-29 17:12:00,
2013-01-29 12:14:00,48.0,42.8,30.04,SSE,151,0.0,5.0,82,0.00,,,0.00,VWS V14.01,2013-01-29 17:14:00,
2013-01-29 12:16:00,47.7,41.8,30.04,East,80,3.0,10.0,80,0.00,,,0.00,VWS V14.01,2013-01-29 17:16:00,
2013-01-29 12:18:00,47.0,40.8,30.05,SE,146,6.0,10.0,79,0.00,,,0.00,VWS V14.01,2013-01-29 17:18:00,
2013-01-29 12:20:00,46.4,40.9,30.05,SE,126,5.0,10.0,81,0.00,,,0.00,VWS V14.01,2013-01-29 17:20:00,
2013-01-29 12:21:00,46.2,40.7,30.05,ENE,76,2.0,10.0,81,0.00,,,0.00,VWS V14.01,2013-01-29 17:21:00,
2013-01-29 12:23:00,46.0,40.8,30.05,East,81,1.0,10.0,82,0.00,,,0.00,VWS V14.01,2013-01-29 17:23:00,
2013-01-29 12:24:00,45.7,40.2,30.05,East,92,0.0,10.0,81,0.00,,,0.00,VWS V14.01,2013-01-29 17:24:00,
2013-01-29 12:28:00,44.9,40.1,30.05,ESE,107,0.0,10.0,83,0.00,,,0.00,VWS V14.01,2013-01-29 17:28:00,
2013-01-29 12:29:00,44.9,40.4,30.05,ESE,107,0.0,10.0,84,0.00,,,0.00,VWS V14.01,2013-01-29 17:29:00,
2013-01-29 12:30:00,45.1,40.9,30.05,East,99,0.0,10.0,85,0.00,,,0.00,VWS V14.01,2013-01-29 17:30:00,
2013-01-29 12:35:00,45.4,41.2,30.05,SSE,160,0.0,5.0,85,0.00,,,0.00,VWS V14.01,2013-01-29 17:35:00,
2013-01-29 12:36:00,45.4,41.2,30.05,SSE,160,0.0,5.0,85,0.00,,,0.00,VWS V14.01,2013-01-29 17:36:00,
2013-01-29 12:37:00,45.5,41.3,30.05,SSE,150,2.0,5.0,85,0.00,,,0.00,VWS V14.01,2013-01-29 17:37:00,
2013-01-29 12:38:00,45.7,41.5,30.05,SSE,150,0.0,5.0,85,0.00,,,0.00,VWS V14.01,2013-01-29 17:38:00,
2013-01-29 12:41:00,45.7,41.2,30.05,SSE,151,0.0,5.0,84,0.00,,,0.00,VWS V14.01,2013-01-29 17:41:00,
2013-01-29 12:43:00,45.5,41.0,30.05,SE,146,0.0,5.0,84,0.00,,,0.00,VWS V14.01,2013-01-29 17:43:00,
2013-01-29 12:45:00,45.5,41.0,30.05,SE,135,0.0,5.0,84,0.00,,,0.00,VWS V14.01,2013-01-29 17:45:00,
2013-01-29 12:46:00,45.5,41.0,30.05,SE,135,0.0,5.0,84,0.00,,,0.00,VWS V14.01,2013-01-29 17:46:00,
2013-01-29 12:48:00,45.4,40.9,30.05,East,86,0.0,5.0,84,0.00,,,0.00,VWS V14.01,2013-01-29 17:48:00,
2013-01-29 12:50:00,45.1,40.6,30.05,East,87,0.0,5.0,84,0.00,,,0.00,VWS V14.01,2013-01-29 17:50:00,
2013-01-29 12:52:00,44.9,40.4,30.05,East,90,0.0,5.0,84,0.00,,,0.00,VWS V14.01,2013-01-29 17:52:00,
2013-01-29 12:54:00,44.8,40.3,30.05,East,92,0.0,5.0,84,0.00,,,0.00,VWS V14.01,2013-01-29 17:54:00,
2013-01-29 12:55:00,44.6,40.1,30.05,ESE,112,2.0,5.0,84,0.00,,,0.00,VWS V14.01,2013-01-29 17:55:00,
2013-01-29 12:56:00,44.6,40.1,30.05,ESE,113,0.0,5.0,84,0.00,,,0.00,VWS V14.01,2013-01-29 17:56:00,
2013-01-29 13:00:00,44.8,40.6,30.05,SE,138,0.0,5.0,85,0.00,,,0.00,VWS V14.01,2013-01-29 18:00:00,
2013-01-29 13:02:00,44.8,40.9,30.05,SE,124,0.0,5.0,86,0.00,,,0.00,VWS V14.01,2013-01-29 18:02:00,
2013-01-29 13:06:00,45.1,41.2,30.05,SSE,154,4.0,6.0,86,0.00,,,0.00,VWS V14.01,2013-01-29 18:06:00,
2013-01-29 13:07:00,45.2,41.3,30.05,SE,146,2.0,6.0,86,0.00,,,0.00,VWS V14.01,2013-01-29 18:07:00,
2013-01-29 13:09:00,45.5,41.6,30.05,ESE,121,4.0,6.0,86,0.00,,,0.00,VWS V14.01,2013-01-29 18:09:00,
2013-01-29 13:10:00,45.5,41.3,30.05,ESE,121,0.0,6.0,85,0.00,,,0.00,VWS V14.01,2013-01-29 18:10:00,
2013-01-29 13:15:00,45.4,41.2,30.05,ESE,121,2.0,6.0,85,0.00,,,0.00,VWS V14.01,2013-01-29 18:15:00,
2013-01-29 13:16:00,45.4,41.2,30.05,SE,124,0.0,6.0,85,0.00,,,0.00,VWS V14.01,2013-01-29 18:16:00,
2013-01-29 13:17:00,45.4,41.2,30.05,SE,134,0.0,6.0,85,0.00,,,0.00,VWS V14.01,2013-01-29 18:17:00,
2013-01-29 13:20:00,45.5,41.3,30.05,ESE,118,2.0,6.0,85,0.00,,,0.00,VWS V14.01,2013-01-29 18:20:00,
2013-01-29 13:22:00,45.5,41.0,30.05,SE,138,0.0,6.0,84,0.00,,,0.00,VWS V14.01,2013-01-29 18:22:00,
2013-01-29 13:23:00,45.4,40.9,30.05,SE,133,0.0,6.0,84,0.00,,,0.00,VWS V14.01,2013-01-29 18:23:00,
2013-01-29 13:27:00,45.2,41.0,30.05,SE,128,5.0,6.0,85,0.00,,,0.00,VWS V14.01,2013-01-29 18:27:00,
2013-01-29 13:28:00,45.1,40.9,30.05,SE,135,0.0,7.0,85,0.00,,,0.00,VWS V14.01,2013-01-29 18:28:00,
2013-01-29 13:29:00,45.1,40.9,30.05,ESE,123,0.0,7.0,85,0.00,,,0.00,VWS V14.01,2013-01-29 18:29:00,
2013-01-29 13:31:00,45.2,41.0,30.05,SE,130,5.0,7.0,85,0.00,,,0.00,VWS V14.01,2013-01-29 18:31:00,
2013-01-29 13:33:00,45.2,41.0,30.05,SE,138,0.0,7.0,85,0.00,,,0.00,VWS V14.01,2013-01-29 18:33:00,
2013-01-29 13:34:00,45.2,41.3,30.05,SE,138,0.0,2.0,86,0.00,,,0.00,VWS V14.01,2013-01-29 18:34:00,
2013-01-29 13:36:00,45.4,41.5,30.05,SE,138,0.0,6.0,86,0.00,,,0.00,VWS V14.01,2013-01-29 18:36:00,
2013-01-29 13:37:00,45.5,41.6,30.05,SE,138,0.0,6.0,86,0.00,,,0.00,VWS V14.01,2013-01-29 18:37:00,
2013-01-29 13:41:00,45.7,41.5,30.05,SE,141,0.0,6.0,85,0.00,,,0.00,VWS V14.01,2013-01-29 18:41:00,
2013-01-29 13:42:00,45.8,41.5,30.05,SE,141,0.0,6.0,85,0.00,,,0.00,VWS V14.01,2013-01-29 18:42:00,
2013-01-29 13:43:00,45.8,41.5,30.05,SE,141,5.0,7.0,85,0.00,,,0.00,VWS V14.01,2013-01-29 18:43:00,
2013-01-29 13:44:00,46.0,41.8,30.05,SE,141,1.0,7.0,85,0.00,,,0.00,VWS V14.01,2013-01-29 18:44:00,
2013-01-29 13:46:00,46.0,41.8,30.05,SE,141,0.0,7.0,85,0.00,,,0.00,VWS V14.01,2013-01-29 18:46:00,
2013-01-29 13:47:00,46.0,41.8,30.04,SE,141,0.0,7.0,85,0.00,,,0.00,VWS V14.01,2013-01-29 18:47:00,
2013-01-29 13:48:00,45.8,41.2,30.04,ESE,112,5.0,7.0,84,0.00,,,0.00,VWS V14.01,2013-01-29 18:48:00,
2013-01-29 13:50:00,45.7,41.2,30.04,East,100,1.0,7.0,84,0.00,,,0.00,VWS V14.01,2013-01-29 18:50:00,
2013-01-29 13:54:00,45.4,40.9,30.04,East,100,0.0,7.0,84,0.00,,,0.00,VWS V14.01,2013-01-29 18:54:00,
2013-01-29 13:55:00,45.4,40.9,30.04,East,100,0.0,7.0,84,0.00,,,0.00,VWS V14.01,2013-01-29 18:55:00,
2013-01-29 13:56:00,45.2,40.7,30.04,East,100,0.0,7.0,84,0.00,,,0.00,VWS V14.01,2013-01-29 18:56:00,
2013-01-29 13:58:00,45.2,41.0,30.04,East,100,0.0,7.0,85,0.00,,,0.00,VWS V14.01,2013-01-29 18:58:00,
2013-01-29 14:00:00,45.1,40.6,30.04,East,92,0.0,7.0,84,0.00,,,0.00,VWS V14.01,2013-01-29 19:00:00,
2013-01-29 14:01:00,44.9,40.4,30.04,East,92,0.0,7.0,84,0.00,,,0.00,VWS V14.01,2013-01-29 19:01:00,
2013-01-29 14:03:00,44.8,40.6,30.04,ESE,103,0.0,7.0,85,0.00,,,0.00,VWS V14.01,2013-01-29 19:03:00,
2013-01-29 14:06:00,44.6,40.4,30.04,SE,144,0.0,5.0,85,0.00,,,0.00,VWS V14.01,2013-01-29 19:06:00,
2013-01-29 14:08:00,44.6,40.4,30.04,SE,144,0.0,5.0,85,0.00,,,0.00,VWS V14.01,2013-01-29 19:08:00,
2013-01-29 14:10:00,44.6,40.4,30.04,SE,136,0.0,5.0,85,0.00,,,0.00,VWS V14.01,2013-01-29 19:10:00,
2013-01-29 14:11:00,44.5,40.3,30.04,SE,136,0.0,5.0,85,0.00,,,0.00,VWS V14.01,2013-01-29 19:11:00,
2013-01-29 14:14:00,44.3,40.1,30.04,SE,137,0.0,5.0,85,0.00,,,0.00,VWS V14.01,2013-01-29 19:14:00,
2013-01-29 14:16:00,44.2,40.3,30.04,SE,128,0.0,5.0,86,0.00,,,0.00,VWS V14.01,2013-01-29 19:16:00,
2013-01-29 14:17:00,44.1,40.2,30.04,ESE,120,5.0,7.0,86,0.00,,,0.00,VWS V14.01,2013-01-29 19:17:00,
2013-01-29 14:19:00,43.9,40.0,30.04,SE,126,5.0,7.0,86,0.00,,,0.00,VWS V14.01,2013-01-29 19:19:00,
2013-01-29 14:22:00,43.8,39.9,30.04,SE,139,6.0,8.0,86,0.00,,,0.00,VWS V14.01,2013-01-29 19:22:00,
2013-01-29 14:25:00,43.8,40.2,30.04,SE,139,2.0,8.0,87,0.00,,,0.00,VWS V14.01,2013-01-29 19:25:00,
2013-01-29 14:27:00,43.8,40.2,30.04,SE,133,0.0,8.0,87,0.00,,,0.00,VWS V14.01,2013-01-29 19:27:00,
2013-01-29 14:30:00,43.9,40.3,30.04,SE,129,5.0,8.0,87,0.00,,,0.00,VWS V14.01,2013-01-29 19:30:00,
2013-01-29 14:31:00,43.9,40.3,30.04,SE,130,2.0,8.0,87,0.00,,,0.00,VWS V14.01,2013-01-29 19:31:00,
2013-01-29 14:34:00,43.9,40.6,30.04,SE,131,0.0,0.0,88,0.00,,,0.00,VWS V14.01,2013-01-29 19:34:00,
2013-01-29 14:36:00,43.9,40.6,30.04,SE,131,0.0,0.0,88,0.00,,,0.00,VWS V14.01,2013-01-29 19:36:00,
2013-01-29 14:38:00,43.9,40.6,30.04,SE,131,0.0,0.0,88,0.00,,,0.00,VWS V14.01,2013-01-29 19:38:00,
2013-01-29 14:39:00,43.9,40.6,30.04,SE,131,0.0,0.0,88,0.00,,,0.00,VWS V14.01,2013-01-29 19:39:00,
2013-01-29 14:42:00,43.9,40.6,30.04,SE,131,0.0,0.0,88,0.00,,,0.00,VWS V14.01,2013-01-29 19:42:00,
2013-01-29 14:45:00,43.9,40.6,30.04,SE,131,0.0,0.0,88,0.00,,,0.00,VWS V14.01,2013-01-29 19:45:00,
2013-01-29 14:46:00,43.9,40.6,30.04,SE,131,0.0,0.0,88,0.00,,,0.00,VWS V14.01,2013-01-29 19:46:00,
2013-01-29 14:50:00,43.8,40.5,30.05,SE,126,0.0,0.0,88,0.00,,,0.00,VWS V14.01,2013-01-29 19:50:00,
2013-01-29 14:51:00,43.8,40.5,30.05,SE,126,0.0,0.0,88,0.00,,,0.00,VWS V14.01,2013-01-29 19:51:00,
2013-01-29 14:52:00,43.6,40.3,30.05,SE,126,0.0,0.0,88,0.00,,,0.00,VWS V14.01,2013-01-29 19:52:00,
2013-01-29 14:55:00,43.5,40.2,30.05,SE,124,0.0,0.0,88,0.00,,,0.00,VWS V14.01,2013-01-29 19:55:00,
2013-01-29 14:56:00,43.5,40.2,30.05,ESE,115,0.0,0.0,88,0.00,,,0.00,VWS V14.01,2013-01-29 19:56:00,
2013-01-29 14:59:00,43.5,40.2,30.05,ESE,106,0.0,0.0,88,0.00,,,0.00,VWS V14.01,2013-01-29 19:59:00,
2013-01-29 15:00:00,43.5,40.2,30.05,ESE,106,0.0,0.0,88,0.00,,,0.00,VWS V14.01,2013-01-29 20:00:00,
2013-01-29 15:03:00,43.3,40.0,30.05,East,92,0.0,0.0,88,0.00,,,0.00,VWS V14.01,2013-01-29 20:03:00,
2013-01-29 15:04:00,43.3,40.0,30.05,East,92,0.0,0.0,88,0.00,,,0.00,VWS V14.01,2013-01-29 20:04:00,
2013-01-29 15:05:00,43.3,40.0,30.05,East,91,0.0,0.0,88,0.00,,,0.00,VWS V14.01,2013-01-29 20:05:00,
2013-01-29 15:08:00,43.2,39.9,30.05,East,81,0.0,4.0,88,0.00,,,0.00,VWS V14.01,2013-01-29 20:08:00,
2013-01-29 15:10:00,43.2,39.9,30.05,East,82,0.0,4.0,88,0.00,,,0.00,VWS V14.01,2013-01-29 20:10:00,
2013-01-29 15:12:00,43.2,40.2,30.05,East,81,0.0,4.0,89,0.00,,,0.00,VWS V14.01,2013-01-29 20:12:00,
2013-01-29 15:14:00,43.2,40.2,30.05,East,81,0.0,4.0,89,0.00,,,0.00,VWS V14.01,2013-01-29 20:14:00,
2013-01-29 15:17:00,43.1,40.1,30.05,East,84,0.0,4.0,89,0.00,,,0.00,VWS V14.01,2013-01-29 20:17:00,
2013-01-29 15:19:00,43.1,40.1,30.05,East,84,0.0,4.0,89,0.00,,,0.00,VWS V14.01,2013-01-29 20:19:00,
2013-01-29 15:22:00,43.1,40.1,30.05,East,84,0.0,4.0,89,0.00,,,0.00,VWS V14.01,2013-01-29 20:22:00,
2013-01-29 15:23:00,43.1,40.1,30.05,East,84,0.0,4.0,89,0.00,,,0.00,VWS V14.01,2013-01-29 20:23:00,
2013-01-29 15:24:00,42.9,39.9,30.05,East,84,0.0,4.0,89,0.00,,,0.00,VWS V14.01,2013-01-29 20:24:00,
2013-01-29 15:27:00,42.9,39.9,30.05,East,84,0.0,4.0,89,0.00,,,0.00,VWS V14.01,2013-01-29 20:27:00,
2013-01-29 15:28:00,42.9,39.9,30.05,East,84,0.0,4.0,89,0.00,,,0.00,VWS V14.01,2013-01-29 20:28:00,
2013-01-29 15:29:00,42.9,39.9,30.05,East,85,0.0,4.0,89,0.00,,,0.00,VWS V14.01,2013-01-29 20:29:00,
2013-01-29 15:30:00,42.9,39.9,30.05,East,85,0.0,4.0,89,0.00,,,0.00,VWS V14.01,2013-01-29 20:30:00,
2013-01-29 15:33:00,42.9,40.2,30.04,East,85,0.0,4.0,90,0.00,,,0.00,VWS V14.01,2013-01-29 20:33:00,
2013-01-29 15:34:00,42.9,40.2,30.04,East,85,0.0,0.0,90,0.00,,,0.00,VWS V14.01,2013-01-29 20:34:00,
2013-01-29 15:35:00,42.9,40.2,30.04,East,86,0.0,0.0,90,0.00,,,0.00,VWS V14.01,2013-01-29 20:35:00,
2013-01-29 15:36:00,42.9,40.2,30.04,East,86,0.0,0.0,90,0.00,,,0.00,VWS V14.01,2013-01-29 20:36:00,
2013-01-29 15:40:00,42.9,40.2,30.04,East,86,0.0,0.0,90,0.00,,,0.00,VWS V14.01,2013-01-29 20:40:00,
2013-01-29 15:41:00,42.9,40.2,30.04,East,86,0.0,0.0,90,0.00,,,0.00,VWS V14.01,2013-01-29 20:41:00,
2013-01-29 15:44:00,43.1,40.4,30.04,East,86,0.0,0.0,90,0.00,,,0.00,VWS V14.01,2013-01-29 20:44:00,
2013-01-29 15:46:00,43.1,40.4,30.04,East,86,0.0,0.0,90,0.00,,,0.00,VWS V14.01,2013-01-29 20:46:00,
2013-01-29 15:47:00,43.1,40.4,30.04,East,86,0.0,0.0,90,0.00,,,0.00,VWS V14.01,2013-01-29 20:47:00,
2013-01-29 15:49:00,43.1,40.4,30.04,East,86,0.0,0.0,90,0.00,,,0.00,VWS V14.01,2013-01-29 20:49:00,
2013-01-29 15:51:00,43.1,40.4,30.04,East,86,0.0,0.0,90,0.00,,,0.00,VWS V14.01,2013-01-29 20:51:00,
2013-01-29 15:54:00,42.9,40.2,30.04,East,86,0.0,0.0,90,0.00,,,0.00,VWS V14.01,2013-01-29 20:54:00,
2013-01-29 15:55:00,42.9,40.2,30.04,East,86,0.0,0.0,90,0.00,,,0.00,VWS V14.01,2013-01-29 20:55:00,
2013-01-29 15:56:00,42.9,40.2,30.04,East,86,0.0,0.0,90,0.00,,,0.00,VWS V14.01,2013-01-29 20:56:00,
2013-01-29 16:00:00,42.9,40.2,30.04,East,86,0.0,0.0,90,0.00,,,0.00,VWS V14.01,2013-01-29 21:00:00,
2013-01-29 16:01:00,42.9,40.2,30.04,East,86,0.0,0.0,90,0.00,,,0.00,VWS V14.01,2013-01-29 21:01:00,
2013-01-29 16:05:00,42.9,40.5,30.04,East,86,0.0,1.0,91,0.00,,,0.00,VWS V14.01,2013-01-29 21:05:00,
2013-01-29 16:07:00,42.9,40.5,30.04,East,86,0.0,1.0,91,0.00,,,0.00,VWS V14.01,2013-01-29 21:07:00,
2013-01-29 16:11:00,42.9,40.5,30.04,East,91,4.0,4.0,91,0.00,,,0.00,VWS V14.01,2013-01-29 21:11:00,
2013-01-29 16:12:00,42.9,40.5,30.04,East,94,0.0,4.0,91,0.00,,,0.00,VWS V14.01,2013-01-29 21:12:00,
2013-01-29 16:14:00,43.1,40.7,30.04,East,94,0.0,4.0,91,0.00,,,0.00,VWS V14.01,2013-01-29 21:14:00,
2013-01-29 16:16:00,43.1,40.7,30.04,East,94,0.0,4.0,91,0.00,,,0.00,VWS V14.01,2013-01-29 21:16:00,
2013-01-29 16:17:00,43.1,40.7,30.04,East,94,0.0,4.0,91,0.00,,,0.00,VWS V14.01,2013-01-29 21:17:00,
2013-01-29 16:21:00,43.2,40.8,30.05,East,94,0.0,4.0,91,0.00,,,0.00,VWS V14.01,2013-01-29 21:21:00,
2013-01-29 16:22:00,43.2,40.8,30.05,East,97,1.0,5.0,91,0.00,,,0.00,VWS V14.01,2013-01-29 21:22:00,
2013-01-29 16:23:00,43.2,40.8,30.05,East,97,0.0,5.0,91,0.00,,,0.00,VWS V14.01,2013-01-29 21:23:00,
2013-01-29 16:25:00,43.2,40.8,30.05,East,97,0.0,5.0,91,0.00,,,0.00,VWS V14.01,2013-01-29 21:25:00,
2013-01-29 16:29:00,43.2,40.8,30.05,East,97,0.0,5.0,91,0.00,,,0.00,VWS V14.01,2013-01-29 21:29:00,
2013-01-29 16:30:00,43.3,40.8,30.05,East,97,0.0,5.0,91,0.00,,,0.00,VWS V14.01,2013-01-29 21:30:00,
2013-01-29 16:31:00,43.3,40.8,30.05,East,97,0.0,5.0,91,0.00,,,0.00,VWS V14.01,2013-01-29 21:31:00,
2013-01-29 16:33:00,43.3,40.8,30.04,East,98,0.0,5.0,91,0.00,,,0.00,VWS V14.01,2013-01-29 21:33:00,
2013-01-29 16:35:00,43.3,40.8,30.04,East,98,0.0,0.0,91,0.00,,,0.00,VWS V14.01,2013-01-29 21:35:00,
2013-01-29 16:37:00,43.3,40.8,30.04,East,98,0.0,0.0,91,0.00,,,0.00,VWS V14.01,2013-01-29 21:37:00,
2013-01-29 16:39:00,43.3,40.8,30.04,East,98,0.0,0.0,91,0.00,,,0.00,VWS V14.01,2013-01-29 21:39:00,
2013-01-29 16:42:00,43.3,40.8,30.04,East,98,0.0,0.0,91,0.00,,,0.00,VWS V14.01,2013-01-29 21:42:00,
2013-01-29 16:43:00,43.3,40.8,30.04,ESE,113,2.0,6.0,91,0.00,,,0.00,VWS V14.01,2013-01-29 21:43:00,
2013-01-29 16:44:00,43.3,40.8,30.04,ESE,113,0.0,6.0,91,0.00,,,0.00,VWS V14.01,2013-01-29 21:44:00,
2013-01-29 16:49:00,43.3,40.8,30.04,ESE,113,0.0,6.0,91,0.00,,,0.00,VWS V14.01,2013-01-29 21:49:00,
2013-01-29 16:51:00,43.3,40.8,30.04,ESE,113,0.0,6.0,91,0.00,,,0.00,VWS V14.01,2013-01-29 21:51:00,
2013-01-29 16:54:00,43.3,40.8,30.04,ESE,113,0.0,6.0,91,0.00,,,0.00,VWS V14.01,2013-01-29 21:54:00,
2013-01-29 16:55:00,43.3,40.8,30.04,ESE,113,0.0,6.0,91,0.00,,,0.00,VWS V14.01,2013-01-29 21:55:00,
2013-01-29 16:56:00,43.3,40.8,30.04,ESE,113,0.0,6.0,91,0.00,,,0.00,VWS V14.01,2013-01-29 21:56:00,
2013-01-29 16:58:00,43.2,40.8,30.04,ESE,113,0.0,6.0,91,0.00,,,0.00,VWS V14.01,2013-01-29 21:58:00,
2013-01-29 17:00:00,43.2,41.0,30.04,ESE,113,0.0,6.0,92,0.00,,,0.00,VWS V14.01,2013-01-29 22:00:00,
2013-01-29 17:01:00,43.2,40.8,30.04,ESE,113,0.0,6.0,91,0.00,,,0.00,VWS V14.01,2013-01-29 22:01:00,
2013-01-29 17:03:00,43.2,41.0,30.05,ESE,113,0.0,6.0,92,0.00,,,0.00,VWS V14.01,2013-01-29 22:03:00,
2013-01-29 17:05:00,43.2,41.0,30.05,ESE,113,0.0,0.0,92,0.00,,,0.00,VWS V14.01,2013-01-29 22:05:00,
2013-01-29 17:07:00,43.2,41.0,30.05,ESE,113,0.0,0.0,92,0.00,,,0.00,VWS V14.01,2013-01-29 22:07:00,
2013-01-29 17:09:00,43.2,41.0,30.05,ESE,113,0.0,0.0,92,0.00,,,0.00,VWS V14.01,2013-01-29 22:09:00,
2013-01-29 17:10:00,43.2,41.0,30.05,ESE,113,4.0,5.0,92,0.00,,,0.00,VWS V14.01,2013-01-29 22:10:00,
2013-01-29 17:11:00,43.2,41.0,30.05,ESE,113,0.0,5.0,92,0.00,,,0.00,VWS V14.01,2013-01-29 22:11:00,
2013-01-29 17:12:00,43.2,41.0,30.05,ESE,109,0.0,5.0,92,0.00,,,0.00,VWS V14.01,2013-01-29 22:12:00,
2013-01-29 17:16:00,43.2,41.0,30.05,ESE,103,0.0,5.0,92,0.00,,,0.00,VWS V14.01,2013-01-29 22:16:00,
2013-01-29 17:18:00,43.2,41.0,30.05,ESE,103,0.0,5.0,92,0.00,,,0.00,VWS V14.01,2013-01-29 22:18:00,
2013-01-29 17:19:00,43.2,41.0,30.05,ESE,103,0.0,5.0,92,0.00,,,0.00,VWS V14.01,2013-01-29 22:19:00,
2013-01-29 17:24:00,43.2,41.0,30.05,ESE,103,0.0,5.0,92,0.00,,,0.00,VWS V14.01,2013-01-29 22:24:00,
2013-01-29 17:25:00,43.2,41.0,30.05,ESE,103,0.0,5.0,92,0.00,,,0.00,VWS V14.01,2013-01-29 22:25:00,
2013-01-29 17:26:00,43.3,41.1,30.05,ESE,103,0.0,5.0,92,0.00,,,0.00,VWS V14.01,2013-01-29 22:26:00,
2013-01-29 17:30:00,43.3,41.1,30.05,ESE,103,0.0,5.0,92,0.00,,,0.00,VWS V14.01,2013-01-29 22:30:00,
2013-01-29 17:31:00,43.3,41.1,30.05,ESE,103,0.0,5.0,92,0.00,,,0.00,VWS V14.01,2013-01-29 22:31:00,
2013-01-29 17:33:00,43.3,41.1,30.06,ESE,103,0.0,5.0,92,0.00,,,0.00,VWS V14.01,2013-01-29 22:33:00,
2013-01-29 17:38:00,43.3,41.1,30.06,ESE,104,0.0,0.0,92,0.00,,,0.00,VWS V14.01,2013-01-29 22:38:00,
2013-01-29 17:39:00,43.3,41.1,30.06,ESE,104,0.0,0.0,92,0.00,,,0.00,VWS V14.01,2013-01-29 22:39:00,
2013-01-29 17:40:00,43.3,41.1,30.06,ESE,104,0.0,0.0,92,0.00,,,0.00,VWS V14.01,2013-01-29 22:40:00,
2013-01-29 17:43:00,43.3,41.1,30.06,ESE,104,0.0,0.0,92,0.00,,,0.00,VWS V14.01,2013-01-29 22:43:00,
2013-01-29 17:44:00,43.3,41.1,30.06,ESE,104,0.0,0.0,92,0.00,,,0.00,VWS V14.01,2013-01-29 22:44:00,
2013-01-29 17:45:00,43.3,41.1,30.06,ESE,104,0.0,0.0,92,0.00,,,0.00,VWS V14.01,2013-01-29 22:45:00,
2013-01-29 17:49:00,43.3,41.1,30.05,ESE,104,0.0,0.0,92,0.00,,,0.00,VWS V14.01,2013-01-29 22:49:00,
2013-01-29 17:50:00,43.3,41.1,30.05,ESE,105,0.0,0.0,92,0.00,,,0.00,VWS V14.01,2013-01-29 22:50:00,
2013-01-29 17:53:00,43.3,41.1,30.05,ESE,105,2.0,4.0,92,0.00,,,0.00,VWS V14.01,2013-01-29 22:53:00,
2013-01-29 17:55:00,43.3,41.1,30.05,ESE,106,0.0,4.0,92,0.00,,,0.00,VWS V14.01,2013-01-29 22:55:00,
2013-01-29 17:56:00,43.3,41.1,30.05,ESE,106,0.0,4.0,92,0.00,,,0.00,VWS V14.01,2013-01-29 22:56:00,
2013-01-29 18:01:00,43.2,41.0,30.05,ESE,106,0.0,4.0,92,0.00,,,0.00,VWS V14.01,2013-01-29 23:01:00,
2013-01-29 18:02:00,43.2,41.0,30.05,ESE,106,0.0,4.0,92,0.00,,,0.00,VWS V14.01,2013-01-29 23:02:00,
2013-01-29 18:05:00,43.2,41.0,30.05,ESE,105,0.0,0.0,92,0.00,,,0.00,VWS V14.01,2013-01-29 23:05:00,
2013-01-29 18:07:00,43.2,41.0,30.05,ESE,106,0.0,0.0,92,0.00,,,0.00,VWS V14.01,2013-01-29 23:07:00,
2013-01-29 18:08:00,43.2,41.0,30.05,ESE,106,0.0,0.0,92,0.00,,,0.00,VWS V14.01,2013-01-29 23:08:00,
2013-01-29 18:11:00,43.2,41.0,30.05,ESE,106,0.0,0.0,92,0.00,,,0.00,VWS V14.01,2013-01-29 23:11:00,
2013-01-29 18:16:00,43.2,41.3,30.05,ESE,106,0.0,0.0,93,0.00,,,0.00,VWS V14.01,2013-01-29 23:16:00,
2013-01-29 18:17:00,43.2,41.3,30.05,ESE,106,0.0,0.0,93,0.00,,,0.00,VWS V14.01,2013-01-29 23:17:00,
2013-01-29 18:20:00,43.2,41.3,30.06,ESE,105,0.0,0.0,93,0.00,,,0.00,VWS V14.01,2013-01-29 23:20:00,
2013-01-29 18:21:00,43.2,41.3,30.06,ESE,105,0.0,0.0,93,0.00,,,0.00,VWS V14.01,2013-01-29 23:21:00,
2013-01-29 18:22:00,43.2,41.3,30.06,ESE,105,0.0,0.0,93,0.00,,,0.00,VWS V14.01,2013-01-29 23:22:00,
2013-01-29 18:25:00,43.2,41.3,30.06,ESE,106,0.0,0.0,93,0.00,,,0.00,VWS V14.01,2013-01-29 23:25:00,
2013-01-29 18:27:00,43.2,41.3,30.06,ESE,106,0.0,4.0,93,0.00,,,0.00,VWS V14.01,2013-01-29 23:27:00,
2013-01-29 18:30:00,43.2,41.3,30.06,ESE,113,0.0,5.0,93,0.00,,,0.00,VWS V14.01,2013-01-29 23:30:00,
2013-01-29 18:32:00,43.3,41.4,30.06,ESE,113,0.0,5.0,93,0.00,,,0.00,VWS V14.01,2013-01-29 23:32:00,
2013-01-29 18:33:00,43.3,41.4,30.05,ESE,113,0.0,5.0,93,0.00,,,0.00,VWS V14.01,2013-01-29 23:33:00,
2013-01-29 18:37:00,43.3,41.4,30.05,ESE,113,0.0,0.0,93,0.00,,,0.00,VWS V14.01,2013-01-29 23:37:00,
2013-01-29 18:39:00,43.3,41.4,30.05,ESE,114,0.0,0.0,93,0.00,,,0.00,VWS V14.01,2013-01-29 23:39:00,
2013-01-29 18:40:00,43.3,41.4,30.05,SE,133,0.0,0.0,93,0.00,,,0.00,VWS V14.01,2013-01-29 23:40:00,
2013-01-29 18:42:00,43.3,41.4,30.05,SE,134,0.0,1.0,93,0.00,,,0.00,VWS V14.01,2013-01-29 23:42:00,
2013-01-29 18:48:00,43.3,41.4,30.06,SE,134,0.0,1.0,93,0.00,,,0.00,VWS V14.01,2013-01-29 23:48:00,
2013-01-29 18:49:00,43.3,41.4,30.06,SE,134,0.0,1.0,93,0.00,,,0.00,VWS V14.01,2013-01-29 23:49:00,
2013-01-29 18:50:00,43.3,41.4,30.06,SE,134,0.0,1.0,93,0.00,,,0.00,VWS V14.01,2013-01-29 23:50:00,
2013-01-29 18:54:00,43.3,41.4,30.06,SE,134,0.0,1.0,93,0.00,,,0.00,VWS V14.01,2013-01-29 23:54:00,
2013-01-29 18:55:00,43.3,41.4,30.06,SE,134,0.0,1.0,93,0.00,,,0.00,VWS V14.01,2013-01-29 23:55:00,
2013-01-29 18:57:00,43.3,41.4,30.06,SE,134,0.0,1.0,93,0.00,,,0.00,VWS V14.01,2013-01-29 23:57:00,
2013-01-29 18:58:00,43.3,41.4,30.06,SE,134,0.0,1.0,93,0.00,,,0.00,VWS V14.01,2013-01-29 23:58:00,
2013-01-29 19:02:00,43.5,41.6,30.06,SE,134,0.0,1.0,93,0.00,,,0.00,VWS V14.01,2013-01-30 00:02:00,
2013-01-29 19:03:00,43.5,41.6,30.07,SE,134,0.0,1.0,93,0.00,,,0.00,VWS V14.01,2013-01-30 00:03:00,
2013-01-29 19:04:00,43.5,41.6,30.07,SE,134,0.0,0.0,93,0.00,,,0.00,VWS V14.01,2013-01-30 00:04:00,
2013-01-29 19:09:00,43.5,41.6,30.07,SE,134,0.0,0.0,93,0.00,,,0.00,VWS V14.01,2013-01-30 00:09:00,
2013-01-29 19:11:00,43.6,41.7,30.07,SE,134,0.0,0.0,93,0.00,,,0.00,VWS V14.01,2013-01-30 00:11:00,
2013-01-29 19:15:00,43.6,41.7,30.07,SE,134,1.0,4.0,93,0.00,,,0.00,VWS V14.01,2013-01-30 00:15:00,
2013-01-29 19:16:00,43.6,41.7,30.07,SE,134,0.0,4.0,93,0.00,,,0.00,VWS V14.01,2013-01-30 00:16:00,
2013-01-29 19:18:00,43.6,41.7,30.07,ENE,61,0.0,4.0,93,0.00,,,0.00,VWS V14.01,2013-01-30 00:18:00,
2013-01-29 19:22:00,43.6,41.7,30.07,ENE,61,0.0,4.0,93,0.00,,,0.00,VWS V14.01,2013-01-30 00:22:00,
2013-01-29 19:24:00,43.6,41.7,30.07,ENE,61,0.0,4.0,93,0.00,,,0.00,VWS V14.01,2013-01-30 00:24:00,
2013-01-29 19:27:00,43.8,41.9,30.07,ENE,61,0.0,4.0,93,0.00,,,0.00,VWS V14.01,2013-01-30 00:27:00,
2013-01-29 19:28:00,43.8,41.9,30.07,ENE,61,0.0,4.0,93,0.00,,,0.00,VWS V14.01,2013-01-30 00:28:00,
2013-01-29 19:30:00,43.8,41.9,30.07,ENE,61,0.0,4.0,93,0.00,,,0.00,VWS V14.01,2013-01-30 00:30:00,
2013-01-29 19:31:00,43.8,41.9,30.07,ENE,61,0.0,4.0,93,0.00,,,0.00,VWS V14.01,2013-01-30 00:31:00,
2013-01-29 19:33:00,43.6,41.7,30.07,ENE,70,0.0,4.0,93,0.00,,,0.00,VWS V14.01,2013-01-30 00:33:00,
2013-01-29 19:36:00,43.8,42.2,30.07,ENE,70,0.0,0.0,94,0.00,,,0.00,VWS V14.01,2013-01-30 00:36:00,
2013-01-29 19:37:00,43.8,42.2,30.07,ENE,70,0.0,0.0,94,0.00,,,0.00,VWS V14.01,2013-01-30 00:37:00,
2013-01-29 19:40:00,43.8,42.2,30.07,ENE,70,0.0,0.0,94,0.00,,,0.00,VWS V14.01,2013-01-30 00:40:00,
2013-01-29 19:41:00,43.8,42.2,30.07,ENE,70,0.0,0.0,94,0.00,,,0.00,VWS V14.01,2013-01-30 00:41:00,
2013-01-29 19:42:00,43.8,42.2,30.07,ENE,70,0.0,0.0,94,0.00,,,0.00,VWS V14.01,2013-01-30 00:42:00,
2013-01-29 19:44:00,43.8,42.2,30.07,ENE,70,0.0,0.0,94,0.00,,,0.00,VWS V14.01,2013-01-30 00:44:00,
2013-01-29 19:46:00,43.8,42.2,30.07,ENE,70,0.0,0.0,94,0.00,,,0.00,VWS V14.01,2013-01-30 00:46:00,
2013-01-29 19:49:00,43.6,42.0,30.06,ENE,70,0.0,0.0,94,0.00,,,0.00,VWS V14.01,2013-01-30 00:49:00,
2013-01-29 19:51:00,43.6,42.0,30.06,ENE,70,0.0,0.0,94,0.00,,,0.00,VWS V14.01,2013-01-30 00:51:00,
2013-01-29 19:52:00,43.6,42.0,30.06,ENE,70,0.0,0.0,94,0.00,,,0.00,VWS V14.01,2013-01-30 00:52:00,
2013-01-29 19:54:00,43.8,42.2,30.06,ENE,70,0.0,0.0,94,0.00,,,0.00,VWS V14.01,2013-01-30 00:54:00,
2013-01-29 19:56:00,43.8,42.2,30.06,ENE,70,0.0,0.0,94,0.00,,,0.00,VWS V14.01,2013-01-30 00:56:00,
2013-01-29 20:00:00,43.8,42.2,30.06,ENE,70,0.0,0.0,94,0.00,,,0.00,VWS V14.01,2013-01-30 01:00:00,
2013-01-29 20:01:00,43.8,42.2,30.06,ENE,70,0.0,0.0,94,0.00,,,0.00,VWS V14.01,2013-01-30 01:01:00,
2013-01-29 20:02:00,43.8,42.2,30.05,ENE,70,0.0,0.0,94,0.00,,,0.00,VWS V14.01,2013-01-30 01:02:00,
2013-01-29 20:06:00,43.8,42.2,30.05,ENE,70,0.0,0.0,94,0.00,,,0.00,VWS V14.01,2013-01-30 01:06:00,
2013-01-29 20:07:00,43.8,42.2,30.05,ENE,70,0.0,0.0,94,0.00,,,0.00,VWS V14.01,2013-01-30 01:07:00,
2013-01-29 20:08:00,43.8,42.2,30.05,ENE,70,0.0,0.0,94,0.00,,,0.00,VWS V14.01,2013-01-30 01:08:00,
2013-01-29 20:12:00,43.8,42.2,30.05,ENE,70,0.0,0.0,94,0.00,,,0.00,VWS V14.01,2013-01-30 01:12:00,
2013-01-29 20:13:00,43.8,42.2,30.05,ENE,70,0.0,0.0,94,0.00,,,0.00,VWS V14.01,2013-01-30 01:13:00,
2013-01-29 20:14:00,43.8,42.2,30.05,ENE,70,0.0,0.0,94,0.00,,,0.00,VWS V14.01,2013-01-30 01:14:00,
2013-01-29 20:16:00,43.8,42.2,30.05,ENE,70,0.0,0.0,94,0.00,,,0.00,VWS V14.01,2013-01-30 01:16:00,
2013-01-29 20:18:00,43.9,42.3,30.05,ENE,71,0.0,0.0,94,0.00,,,0.00,VWS V14.01,2013-01-30 01:18:00,
2013-01-29 20:24:00,43.9,42.3,30.05,ENE,71,0.0,0.0,94,0.00,,,0.00,VWS V14.01,2013-01-30 01:24:00,
2013-01-29 20:25:00,43.9,42.3,30.05,ENE,71,0.0,0.0,94,0.00,,,0.00,VWS V14.01,2013-01-30 01:25:00,
2013-01-29 20:26:00,43.9,42.3,30.05,ENE,71,0.0,0.0,94,0.00,,,0.00,VWS V14.01,2013-01-30 01:26:00,
2013-01-29 20:30:00,43.9,42.3,30.05,ENE,71,0.0,0.0,94,0.00,,,0.00,VWS V14.01,2013-01-30 01:30:00,
2013-01-29 20:31:00,43.9,42.3,30.05,ENE,71,0.0,0.0,94,0.00,,,0.00,VWS V14.01,2013-01-30 01:31:00,
2013-01-29 20:32:00,43.9,42.3,30.05,ENE,71,0.0,0.0,94,0.00,,,0.00,VWS V14.01,2013-01-30 01:32:00,
2013-01-29 20:33:00,43.9,42.3,30.05,ENE,71,0.0,0.0,94,0.00,,,0.00,VWS V14.01,2013-01-30 01:33:00,
2013-01-29 20:35:00,43.9,42.3,30.05,ENE,71,0.0,0.0,94,0.00,,,0.00,VWS V14.01,2013-01-30 01:35:00,
2013-01-29 20:37:00,43.9,42.3,30.05,East,81,0.0,0.0,94,0.00,,,0.00,VWS V14.01,2013-01-30 01:37:00,
2013-01-29 20:40:00,43.9,42.3,30.05,East,82,0.0,0.0,94,0.00,,,0.00,VWS V14.01,2013-01-30 01:40:00,
2013-01-29 20:41:00,43.9,42.3,30.05,East,82,0.0,0.0,94,0.00,,,0.00,VWS V14.01,2013-01-30 01:41:00,
2013-01-29 20:43:00,43.9,42.3,30.05,East,83,0.0,0.0,94,0.00,,,0.00,VWS V14.01,2013-01-30 01:43:00,
2013-01-29 20:46:00,43.9,42.3,30.05,ESE,119,0.0,0.0,94,0.00,,,0.00,VWS V14.01,2013-01-30 01:46:00,
2013-01-29 20:47:00,44.1,42.5,30.05,ESE,119,0.0,0.0,94,0.00,,,0.00,VWS V14.01,2013-01-30 01:47:00,
2013-01-29 20:50:00,44.1,42.5,30.05,ESE,123,0.0,4.0,94,0.00,,,0.00,VWS V14.01,2013-01-30 01:50:00,
2013-01-29 20:52:00,44.1,42.5,30.05,ESE,123,0.0,4.0,94,0.00,,,0.00,VWS V14.01,2013-01-30 01:52:00,
2013-01-29 20:54:00,44.1,42.5,30.05,ESE,123,0.0,4.0,94,0.00,,,0.00,VWS V14.01,2013-01-30 01:54:00,
2013-01-29 20:56:00,44.1,42.5,30.05,ESE,123,0.0,4.0,94,0.00,,,0.00,VWS V14.01,2013-01-30 01:56:00,
2013-01-29 20:59:00,44.2,42.6,30.05,ESE,123,0.0,4.0,94,0.00,,,0.00,VWS V14.01,2013-01-30 01:59:00,
2013-01-29 21:03:00,44.2,42.6,30.05,ESE,123,0.0,4.0,94,0.00,,,0.00,VWS V14.01,2013-01-30 02:03:00,
2013-01-29 21:04:00,44.2,42.6,30.05,ESE,123,0.0,0.0,94,0.00,,,0.00,VWS V14.01,2013-01-30 02:04:00,
2013-01-29 21:07:00,44.2,42.6,30.05,ESE,123,0.0,0.0,94,0.00,,,0.00,VWS V14.01,2013-01-30 02:07:00,
2013-01-29 21:11:00,44.3,42.7,30.05,ESE,123,0.0,0.0,94,0.00,,,0.00,VWS V14.01,2013-01-30 02:11:00,
2013-01-29 21:12:00,44.3,42.7,30.05,ESE,123,0.0,0.0,94,0.00,,,0.00,VWS V14.01,2013-01-30 02:12:00,
2013-01-29 21:14:00,44.3,42.7,30.05,ESE,123,0.0,0.0,94,0.00,,,0.00,VWS V14.01,2013-01-30 02:14:00,
2013-01-29 21:15:00,44.3,42.7,30.05,ESE,123,0.0,0.0,94,0.00,,,0.00,VWS V14.01,2013-01-30 02:15:00,
2013-01-29 21:21:00,44.2,42.6,30.05,ESE,123,0.0,0.0,94,0.00,,,0.00,VWS V14.01,2013-01-30 02:21:00,
2013-01-29 21:22:00,44.2,42.6,30.05,ESE,123,0.0,0.0,94,0.00,,,0.00,VWS V14.01,2013-01-30 02:22:00,
2013-01-29 21:25:00,44.2,42.6,30.05,ESE,123,0.0,5.0,94,0.00,,,0.00,VWS V14.01,2013-01-30 02:25:00,
2013-01-29 21:27:00,44.2,42.6,30.05,ESE,123,0.0,5.0,94,0.00,,,0.00,VWS V14.01,2013-01-30 02:27:00,
2013-01-29 21:30:00,44.2,42.6,30.05,ESE,123,0.0,5.0,94,0.00,,,0.00,VWS V14.01,2013-01-30 02:30:00,
2013-01-29 21:32:00,44.2,42.6,30.05,ESE,123,0.0,5.0,94,0.00,,,0.00,VWS V14.01,2013-01-30 02:32:00,
2013-01-29 21:33:00,44.2,42.6,30.04,ESE,123,0.0,5.0,94,0.00,,,0.00,VWS V14.01,2013-01-30 02:33:00,
2013-01-29 21:34:00,44.2,42.6,30.04,ESE,123,0.0,0.0,94,0.00,,,0.00,VWS V14.01,2013-01-30 02:34:00,
2013-01-29 21:38:00,44.2,42.6,30.04,ESE,123,0.0,0.0,94,0.00,,,0.00,VWS V14.01,2013-01-30 02:38:00,
2013-01-29 21:39:00,44.2,42.6,30.04,ESE,123,0.0,0.0,94,0.00,,,0.00,VWS V14.01,2013-01-30 02:39:00,
2013-01-29 21:41:00,44.2,42.6,30.04,ESE,123,0.0,0.0,94,0.00,,,0.00,VWS V14.01,2013-01-30 02:41:00,
2013-01-29 21:44:00,44.2,42.6,30.04,ESE,123,0.0,0.0,94,0.00,,,0.00,VWS V14.01,2013-01-30 02:44:00,
2013-01-29 21:45:00,44.2,42.6,30.04,ESE,123,0.0,0.0,94,0.00,,,0.00,VWS V14.01,2013-01-30 02:45:00,
2013-01-29 21:46:00,44.2,42.6,30.04,ESE,123,0.0,0.0,94,0.00,,,0.00,VWS V14.01,2013-01-30 02:46:00,
2013-01-29 21:50:00,44.1,42.5,30.04,ESE,123,0.0,0.0,94,0.00,,,0.00,VWS V14.01,2013-01-30 02:50:00,
2013-01-29 21:51:00,44.1,42.5,30.04,ESE,123,0.0,0.0,94,0.00,,,0.00,VWS V14.01,2013-01-30 02:51:00,
2013-01-29 21:52:00,44.1,42.5,30.04,ESE,123,0.0,0.0,94,0.00,,,0.00,VWS V14.01,2013-01-30 02:52:00,
2013-01-29 21:53:00,44.1,42.5,30.04,ESE,123,0.0,0.0,94,0.00,,,0.00,VWS V14.01,2013-01-30 02:53:00,
2013-01-29 21:57:00,44.1,42.5,30.04,SSE,153,0.0,6.0,94,0.00,,,0.00,VWS V14.01,2013-01-30 02:57:00,
2013-01-29 21:59:00,44.1,42.8,30.04,SSE,155,0.0,6.0,95,0.00,,,0.00,VWS V14.01,2013-01-30 02:59:00,
2013-01-29 22:00:00,44.1,42.8,30.04,SSE,155,0.0,6.0,95,0.00,,,0.00,VWS V14.01,2013-01-30 03:00:00,
2013-01-29 22:02:00,44.1,42.8,30.04,SSE,155,0.0,6.0,95,0.00,,,0.00,VWS V14.01,2013-01-30 03:02:00,
2013-01-29 22:03:00,44.1,42.8,30.03,SSE,155,0.0,6.0,95,0.00,,,0.00,VWS V14.01,2013-01-30 03:03:00,
2013-01-29 22:05:00,44.1,42.8,30.03,SSE,155,0.0,0.0,95,0.00,,,0.00,VWS V14.01,2013-01-30 03:05:00,
2013-01-29 22:09:00,44.1,42.8,30.03,SSE,156,0.0,0.0,95,0.00,,,0.00,VWS V14.01,2013-01-30 03:09:00,
2013-01-29 22:10:00,44.1,42.8,30.03,SSE,155,0.0,0.0,95,0.00,,,0.00,VWS V14.01,2013-01-30 03:10:00,
2013-01-29 22:15:00,44.2,42.9,30.03,SSE,156,0.0,6.0,95,0.00,,,0.00,VWS V14.01,2013-01-30 03:15:00,
2013-01-29 22:16:00,44.2,42.9,30.03,SSE,156,0.0,6.0,95,0.00,,,0.00,VWS V14.01,2013-01-30 03:16:00,
2013-01-29 22:18:00,44.2,42.9,30.02,SSE,156,0.0,6.0,95,0.00,,,0.00,VWS V14.01,2013-01-30 03:18:00,
2013-01-29 22:19:00,44.2,42.9,30.02,SSE,156,0.0,6.0,95,0.00,,,0.00,VWS V14.01,2013-01-30 03:19:00,
2013-01-29 22:20:00,44.2,42.9,30.02,SSE,157,5.0,6.0,95,0.00,,,0.00,VWS V14.01,2013-01-30 03:20:00,
2013-01-29 22:21:00,44.2,42.9,30.02,SSE,157,0.0,6.0,95,0.00,,,0.00,VWS V14.01,2013-01-30 03:21:00,
2013-01-29 22:24:00,44.2,42.9,30.02,SSE,160,4.0,6.0,95,0.00,,,0.00,VWS V14.01,2013-01-30 03:24:00,
2013-01-29 22:25:00,44.2,42.9,30.02,SSE,160,0.0,6.0,95,0.00,,,0.00,VWS V14.01,2013-01-30 03:25:00,
2013-01-29 22:31:00,44.1,42.8,30.02,SSE,160,0.0,6.0,95,0.00,,,0.00,VWS V14.01,2013-01-30 03:31:00,
2013-01-29 22:32:00,44.1,42.8,30.02,SSE,160,0.0,6.0,95,0.00,,,0.00,VWS V14.01,2013-01-30 03:32:00,
2013-01-29 22:33:00,44.1,42.8,30.02,SSE,160,0.0,6.0,95,0.00,,,0.00,VWS V14.01,2013-01-30 03:33:00,
2013-01-29 22:38:00,44.2,42.9,30.02,SSE,160,0.0,0.0,95,0.00,,,0.00,VWS V14.01,2013-01-30 03:38:00,
2013-01-29 22:39:00,44.2,42.9,30.02,SSE,160,0.0,0.0,95,0.00,,,0.00,VWS V14.01,2013-01-30 03:39:00,
2013-01-29 22:40:00,44.2,42.9,30.02,SSE,160,0.0,0.0,95,0.00,,,0.00,VWS V14.01,2013-01-30 03:40:00,
2013-01-29 22:43:00,44.1,42.8,30.02,South,174,4.0,6.0,95,0.00,,,0.00,VWS V14.01,2013-01-30 03:43:00,
2013-01-29 22:46:00,44.1,42.8,30.02,South,180,0.0,7.0,95,0.00,,,0.00,VWS V14.01,2013-01-30 03:46:00,
2013-01-29 22:47:00,44.2,42.9,30.02,South,180,0.0,7.0,95,0.00,,,0.00,VWS V14.01,2013-01-30 03:47:00,
2013-01-29 22:48:00,44.2,42.9,30.02,South,180,0.0,7.0,95,0.00,,,0.00,VWS V14.01,2013-01-30 03:48:00,
2013-01-29 22:52:00,44.2,42.9,30.02,South,180,0.0,7.0,95,0.00,,,0.00,VWS V14.01,2013-01-30 03:52:00,
2013-01-29 22:53:00,44.2,42.9,30.02,South,180,0.0,7.0,95,0.00,,,0.00,VWS V14.01,2013-01-30 03:53:00,
2013-01-29 22:56:00,44.2,42.9,30.02,South,180,0.0,7.0,95,0.00,,,0.00,VWS V14.01,2013-01-30 03:56:00,
2013-01-29 22:57:00,44.2,42.9,30.02,South,180,0.0,7.0,95,0.00,,,0.00,VWS V14.01,2013-01-30 03:57:00,
2013-01-29 22:58:00,44.2,42.9,30.02,South,180,0.0,7.0,95,0.00,,,0.00,VWS V14.01,2013-01-30 03:58:00,
2013-01-29 22:59:00,44.2,42.9,30.02,South,180,3.0,7.0,95,0.00,,,0.00,VWS V14.01,2013-01-30 03:59:00,
2013-01-29 23:02:00,44.2,42.9,30.01,South,180,0.0,7.0,95,0.00,,,0.00,VWS V14.01,2013-01-30 04:02:00,
2013-01-29 23:05:00,44.2,42.9,30.01,South,186,0.0,8.0,95,0.00,,,0.00,VWS V14.01,2013-01-30 04:05:00,
2013-01-29 23:06:00,44.2,42.9,30.01,SSE,157,4.0,8.0,95,0.00,,,0.00,VWS V14.01,2013-01-30 04:06:00,
2013-01-29 23:09:00,44.2,42.9,30.01,SSW,194,3.0,9.0,95,0.00,,,0.00,VWS V14.01,2013-01-30 04:09:00,
2013-01-29 23:10:00,44.3,43.0,30.01,South,169,4.0,9.0,95,0.00,,,0.00,VWS V14.01,2013-01-30 04:10:00,
2013-01-29 23:13:00,44.5,43.2,30.01,SSE,163,0.0,9.0,95,0.00,,,0.00,VWS V14.01,2013-01-30 04:13:00,
2013-01-29 23:15:00,44.6,43.3,30.01,SSE,163,0.0,9.0,95,0.00,,,0.00,VWS V14.01,2013-01-30 04:15:00,
2013-01-29 23:16:00,44.6,43.3,30.01,SSE,164,2.0,9.0,95,0.00,,,0.00,VWS V14.01,2013-01-30 04:16:00,
2013-01-29 23:17:00,44.8,43.5,30.01,South,173,2.0,9.0,95,0.00,,,0.00,VWS V14.01,2013-01-30 04:17:00,
2013-01-29 23:22:00,44.9,43.6,30.01,SSE,148,4.0,9.0,95,0.00,,,0.00,VWS V14.01,2013-01-30 04:22:00,
2013-01-29 23:23:00,45.1,44.0,30.01,SSE,161,0.0,9.0,96,0.00,,,0.00,VWS V14.01,2013-01-30 04:23:00,
2013-01-29 23:24:00,45.1,43.8,30.01,South,182,6.0,9.0,95,0.00,,,0.00,VWS V14.01,2013-01-30 04:24:00,
2013-01-29 23:27:00,45.2,43.9,30.01,South,182,4.0,9.0,95,0.00,,,0.00,VWS V14.01,2013-01-30 04:27:00,
2013-01-29 23:28:00,45.2,43.9,30.01,South,182,0.0,9.0,95,0.00,,,0.00,VWS V14.01,2013-01-30 04:28:00,
2013-01-29 23:30:00,45.2,43.9,30.01,SSE,165,1.0,9.0,95,0.00,,,0.00,VWS V14.01,2013-01-30 04:30:00,
2013-01-29 23:32:00,45.2,43.9,30.01,South,186,0.0,9.0,95,0.00,,,0.00,VWS V14.01,2013-01-30 04:32:00,
2013-01-29 23:33:00,45.2,43.9,30.02,South,186,3.0,9.0,95,0.00,,,0.00,VWS V14.01,2013-01-30 04:33:00,
2013-01-29 23:37:00,45.2,43.9,30.02,South,180,4.0,6.0,95,0.00,,,0.00,VWS V14.01,2013-01-30 04:37:00,
2013-01-29 23:39:00,45.2,43.9,30.02,SSW,202,0.0,7.0,95,0.00,,,0.00,VWS V14.01,2013-01-30 04:39:00,
2013-01-29 23:40:00,45.2,43.9,30.02,SSW,200,0.0,7.0,95,0.00,,,0.00,VWS V14.01,2013-01-30 04:40:00,
2013-01-29 23:45:00,45.2,43.9,30.02,South,181,0.0,7.0,95,0.00,,,0.00,VWS V14.01,2013-01-30 04:45:00,
2013-01-29 23:46:00,45.2,43.9,30.02,South,181,0.0,7.0,95,0.00,,,0.00,VWS V14.01,2013-01-30 04:46:00,
2013-01-29 23:47:00,45.4,44.0,30.02,South,181,0.0,7.0,95,0.00,,,0.00,VWS V14.01,2013-01-30 04:47:00,
2013-01-29 23:48:00,45.4,44.0,30.01,South,181,0.0,7.0,95,0.00,,,0.00,VWS V14.01,2013-01-30 04:48:00,
2013-01-29 23:52:00,45.4,44.0,30.01,South,183,0.0,7.0,95,0.00,,,0.00,VWS V14.01,2013-01-30 04:52:00,
2013-01-29 23:54:00,45.4,44.0,30.01,South,183,0.0,7.0,95,0.00,,,0.00,VWS V14.01,2013-01-30 04:54:00,
2013-01-29 23:57:00,45.2,43.9,30.01,South,183,0.0,7.0,95,0.00,,,0.00,VWS V14.01,2013-01-30 04:57:00,
2013-01-29 23:58:00,45.2,43.9,30.01,South,183,0.0,7.0,95,0.00,,,0.00,VWS V14.01,2013-01-30 04:58:00,
2013-01-29 23:59:00,45.2,43.9,30.01,South,183,0.0,7.0,95,0.00,,,0.00,VWS V14.01,2013-01-30 04:59:00,